Time,TemperatureF,DewpointF,PressureIn,WindDirection,WindDirectionDegrees,WindSpeedMPH,WindSpeedGustMPH,Humidity,HourlyPrecipIn,Conditions,Clouds,dailyrainin,SoftwareType,DateUTC
2013-06-10 00:00:00,72.5,59.6,29.84,ESE,113,0.0,1.0,64,0.00,,,0.03,Wunderground v.1.15,2013-06-10 04:00:00,
2013-06-10 00:01:00,72.5,59.6,29.84,ESE,113,0.0,1.0,64,0.00,,,0.03,Wunderground v.1.15,2013-06-10 04:01:00,
2013-06-10 00:02:00,72.5,59.2,29.84,ESE,113,0.0,1.0,63,0.00,,,0.03,Wunderground v.1.15,2013-06-10 04:02:00,
2013-06-10 00:03:00,72.5,59.2,29.84,ESE,113,2.0,2.0,63,0.00,,,0.03,Wunderground v.1.15,2013-06-10 04:03:00,
2013-06-10 00:04:00,72.5,59.6,29.84,ESE,113,0.0,2.0,64,0.00,,,0.03,Wunderground v.1.15,2013-06-10 04:04:00,
2013-06-10 00:08:00,72.7,59.4,29.84,East,90,0.0,2.0,63,0.00,,,0.03,Wunderground v.1.15,2013-06-10 04:08:00,
2013-06-10 00:09:00,72.8,59.5,29.84,East,100,0.0,2.0,63,0.00,,,0.03,Wunderground v.1.15,2013-06-10 04:09:00,
2013-06-10 00:10:00,72.8,59.5,29.84,ESE,102,0.0,1.0,63,0.00,,,0.03,Wunderground v.1.15,2013-06-10 04:10:00,
2013-06-10 00:11:00,72.8,59.9,29.84,ESE,102,0.0,1.0,64,0.00,,,0.03,Wunderground v.1.15,2013-06-10 04:11:00,
2013-06-10 00:12:00,72.8,59.5,29.84,East,101,0.0,1.0,63,0.00,,,0.03,Wunderground v.1.15,2013-06-10 04:12:00,
2013-06-10 00:16:00,72.8,59.9,29.84,ESE,114,0.0,1.0,64,0.00,,,0.00,Wunderground v.1.15,2013-06-10 04:16:00,
2013-06-10 00:17:00,72.8,59.9,29.84,ESE,115,0.0,1.0,64,0.00,,,0.00,Wunderground v.1.15,2013-06-10 04:17:00,
2013-06-10 00:18:00,72.8,59.9,29.84,ESE,114,0.0,1.0,64,0.00,,,0.00,Wunderground v.1.15,2013-06-10 04:18:00,
2013-06-10 00:21:00,72.7,59.8,29.84,ESE,114,0.0,0.0,64,0.00,,,0.00,Wunderground v.1.15,2013-06-10 04:21:00,
2013-06-10 00:24:00,72.6,59.7,29.84,East,95,1.0,1.0,64,0.00,,,0.00,Wunderground v.1.15,2013-06-10 04:24:00,
2013-06-10 00:25:00,72.5,60.1,29.84,East,98,1.0,1.0,65,0.00,,,0.00,Wunderground v.1.15,2013-06-10 04:25:00,
2013-06-10 00:26:00,72.5,59.6,29.84,East,101,0.0,1.0,64,0.00,,,0.00,Wunderground v.1.15,2013-06-10 04:26:00,
2013-06-10 00:30:00,72.6,60.2,29.84,East,101,0.0,0.0,65,0.00,,,0.00,Wunderground v.1.15,2013-06-10 04:30:00,
2013-06-10 00:31:00,72.6,60.2,29.84,ESE,103,0.0,0.0,65,0.00,,,0.00,Wunderground v.1.15,2013-06-10 04:31:00,
2013-06-10 00:32:00,72.6,60.2,29.84,ESE,107,1.0,1.0,65,0.00,,,0.00,Wunderground v.1.15,2013-06-10 04:32:00,
2013-06-10 00:33:00,72.5,60.1,29.84,ESE,105,1.0,1.0,65,0.00,,,0.00,Wunderground v.1.15,2013-06-10 04:33:00,
2013-06-10 00:37:00,72.4,60.4,29.84,ESE,117,2.0,3.0,66,0.00,,,0.00,Wunderground v.1.15,2013-06-10 04:37:00,
2013-06-10 00:38:00,72.5,60.5,29.84,ESE,122,0.0,3.0,66,0.00,,,0.00,Wunderground v.1.15,2013-06-10 04:38:00,
2013-06-10 00:40:00,72.5,60.9,29.84,ESE,122,0.0,1.0,67,0.00,,,0.00,Wunderground v.1.15,2013-06-10 04:40:00,
2013-06-10 00:42:00,72.4,61.2,29.84,ESE,122,1.0,1.0,68,0.00,,,0.00,Wunderground v.1.15,2013-06-10 04:42:00,
2013-06-10 00:46:00,71.9,61.2,29.84,ESE,122,0.0,1.0,69,0.00,,,0.00,Wunderground v.1.15,2013-06-10 04:46:00,
2013-06-10 00:47:00,71.8,61.5,29.84,ESE,122,0.0,1.0,70,0.00,,,0.00,Wunderground v.1.15,2013-06-10 04:47:00,
2013-06-10 00:49:00,71.6,61.3,29.84,ESE,121,3.0,3.0,70,0.00,,,0.00,Wunderground v.1.15,2013-06-10 04:49:00,
2013-06-10 00:50:00,71.4,61.5,29.84,ESE,121,0.0,0.0,71,0.00,,,0.00,Wunderground v.1.15,2013-06-10 04:50:00,
2013-06-10 00:52:00,71.2,61.7,29.84,East,92,0.0,1.0,72,0.00,,,0.00,Wunderground v.1.15,2013-06-10 04:52:00,
2013-06-10 00:57:00,70.6,62.3,29.84,SE,133,1.0,2.0,75,0.00,,,0.01,Wunderground v.1.15,2013-06-10 04:57:00,
2013-06-10 00:59:00,70.3,62.4,29.83,ESE,120,3.0,3.0,76,0.00,,,0.01,Wunderground v.1.15,2013-06-10 04:59:00,
2013-06-10 01:00:00,70.2,62.3,29.83,SE,124,0.0,1.0,76,0.00,,,0.01,Wunderground v.1.15,2013-06-10 05:00:00,
2013-06-10 01:03:00,69.9,62.7,29.83,South,178,1.0,2.0,78,0.00,,,0.01,Wunderground v.1.15,2013-06-10 05:03:00,
2013-06-10 01:07:00,69.5,63.1,29.84,SSE,161,0.0,2.0,80,0.00,,,0.01,Wunderground v.1.15,2013-06-10 05:07:00,
2013-06-10 01:08:00,69.4,63.0,29.84,ESE,115,0.0,2.0,80,0.00,,,0.01,Wunderground v.1.15,2013-06-10 05:08:00,
2013-06-10 01:10:00,69.2,63.1,29.84,ESE,112,1.0,1.0,81,0.00,,,0.01,Wunderground v.1.15,2013-06-10 05:10:00,
2013-06-10 01:13:00,68.9,63.2,29.84,ESE,112,0.0,1.0,82,0.00,,,0.01,Wunderground v.1.15,2013-06-10 05:13:00,
2013-06-10 01:14:00,68.8,63.1,29.84,ESE,112,0.0,1.0,82,0.00,,,0.01,Wunderground v.1.15,2013-06-10 05:14:00,
2013-06-10 01:16:00,68.6,63.2,29.84,ESE,112,0.0,1.0,83,0.00,,,0.01,Wunderground v.1.15,2013-06-10 05:16:00,
2013-06-10 01:19:00,68.3,63.3,29.85,ESE,112,0.0,1.0,84,0.00,,,0.01,Wunderground v.1.15,2013-06-10 05:19:00,
2013-06-10 01:21:00,68.2,63.2,29.85,ESE,113,1.0,1.0,84,0.00,,,0.01,Wunderground v.1.15,2013-06-10 05:21:00,
2013-06-10 01:22:00,68.2,63.5,29.85,ESE,123,0.0,1.0,85,0.00,,,0.01,Wunderground v.1.15,2013-06-10 05:22:00,
2013-06-10 01:24:00,68.1,63.4,29.85,SE,130,0.0,3.0,85,0.00,,,0.01,Wunderground v.1.15,2013-06-10 05:24:00,
2013-06-10 01:27:00,67.9,63.6,29.84,ESE,115,0.0,3.0,86,0.00,,,0.01,Wunderground v.1.15,2013-06-10 05:27:00,
2013-06-10 01:28:00,67.9,63.6,29.84,ESE,115,0.0,3.0,86,0.00,,,0.01,Wunderground v.1.15,2013-06-10 05:28:00,
2013-06-10 01:30:00,67.8,63.5,29.84,ESE,115,0.0,1.0,86,0.00,,,0.01,Wunderground v.1.15,2013-06-10 05:30:00,
2013-06-10 01:32:00,67.7,63.7,29.84,ESE,115,0.0,1.0,87,0.00,,,0.01,Wunderground v.1.15,2013-06-10 05:32:00,
2013-06-10 01:35:00,67.6,63.6,29.84,ESE,121,1.0,1.0,87,0.00,,,0.01,Wunderground v.1.15,2013-06-10 05:35:00,
2013-06-10 01:36:00,67.5,63.8,29.84,SE,131,0.0,1.0,88,0.00,,,0.02,Wunderground v.1.15,2013-06-10 05:36:00,
2013-06-10 01:41:00,67.2,63.8,29.84,SE,131,0.0,0.0,89,0.00,,,0.02,Wunderground v.1.15,2013-06-10 05:41:00,
2013-06-10 01:42:00,67.1,63.7,29.84,SE,131,0.0,0.0,89,0.00,,,0.02,Wunderground v.1.15,2013-06-10 05:42:00,
2013-06-10 01:43:00,67.1,63.7,29.84,SE,131,0.0,0.0,89,0.00,,,0.02,Wunderground v.1.15,2013-06-10 05:43:00,
2013-06-10 01:45:00,67.0,64.0,29.84,SE,131,0.0,0.0,90,0.00,,,0.02,Wunderground v.1.15,2013-06-10 05:45:00,
2013-06-10 01:47:00,66.8,63.8,29.84,SE,131,0.0,0.0,90,0.00,,,0.02,Wunderground v.1.15,2013-06-10 05:47:00,
2013-06-10 01:49:00,66.7,63.7,29.84,SE,131,0.0,0.0,90,0.00,,,0.02,Wunderground v.1.15,2013-06-10 05:49:00,
2013-06-10 01:50:00,66.7,63.7,29.84,SE,131,0.0,0.0,90,0.00,,,0.02,Wunderground v.1.15,2013-06-10 05:50:00,
2013-06-10 01:51:00,66.6,63.9,29.84,SE,131,0.0,0.0,91,0.00,,,0.02,Wunderground v.1.15,2013-06-10 05:51:00,
2013-06-10 01:56:00,66.6,63.9,29.83,SE,131,0.0,0.0,91,0.00,,,0.02,Wunderground v.1.15,2013-06-10 05:56:00,
2013-06-10 01:57:00,66.6,63.9,29.83,SE,131,0.0,0.0,91,0.00,,,0.02,Wunderground v.1.15,2013-06-10 05:57:00,
2013-06-10 01:58:00,66.6,63.9,29.83,SE,131,1.0,1.0,91,0.00,,,0.02,Wunderground v.1.15,2013-06-10 05:58:00,
2013-06-10 02:00:00,66.6,63.9,29.83,SE,131,1.0,1.0,91,0.00,,,0.02,Wunderground v.1.15,2013-06-10 06:00:00,
2013-06-10 02:01:00,66.5,63.8,29.83,SE,130,0.0,2.0,91,0.00,,,0.02,Wunderground v.1.15,2013-06-10 06:01:00,
2013-06-10 02:03:00,66.5,64.1,29.82,SE,130,0.0,2.0,92,0.00,,,0.02,Wunderground v.1.15,2013-06-10 06:03:00,
2013-06-10 02:05:00,66.4,64.0,29.83,SE,130,0.0,2.0,92,0.00,,,0.02,Wunderground v.1.15,2013-06-10 06:05:00,
2013-06-10 02:06:00,66.4,64.0,29.83,SE,130,0.0,2.0,92,0.00,,,0.02,Wunderground v.1.15,2013-06-10 06:06:00,
2013-06-10 02:07:00,66.4,64.0,29.83,SE,130,0.0,2.0,92,0.00,,,0.02,Wunderground v.1.15,2013-06-10 06:07:00,
2013-06-10 02:08:00,66.3,63.9,29.83,SE,130,0.0,2.0,92,0.00,,,0.02,Wunderground v.1.15,2013-06-10 06:08:00,
2013-06-10 02:10:00,66.3,63.9,29.82,SE,130,0.0,0.0,92,0.00,,,0.02,Wunderground v.1.15,2013-06-10 06:10:00,
2013-06-10 02:11:00,66.3,63.9,29.82,SE,130,0.0,1.0,92,0.00,,,0.02,Wunderground v.1.15,2013-06-10 06:11:00,
2013-06-10 02:12:00,66.3,63.9,29.82,SE,130,0.0,1.0,92,0.00,,,0.02,Wunderground v.1.15,2013-06-10 06:12:00,
2013-06-10 02:13:00,66.3,63.9,29.82,SE,130,0.0,2.0,92,0.00,,,0.02,Wunderground v.1.15,2013-06-10 06:13:00,
2013-06-10 02:15:00,66.3,63.9,29.82,SE,130,0.0,2.0,92,0.00,,,0.02,Wunderground v.1.15,2013-06-10 06:15:00,
2013-06-10 02:16:00,66.3,63.9,29.82,SE,130,1.0,2.0,92,0.00,,,0.02,Wunderground v.1.15,2013-06-10 06:16:00,
2013-06-10 02:17:00,66.3,63.9,29.81,ESE,117,0.0,2.0,92,0.00,,,0.02,Wunderground v.1.15,2013-06-10 06:17:00,
2013-06-10 02:19:00,66.3,63.9,29.82,ESE,117,0.0,2.0,92,0.00,,,0.02,Wunderground v.1.15,2013-06-10 06:19:00,
2013-06-10 02:20:00,66.3,63.9,29.82,ESE,117,1.0,1.0,92,0.00,,,0.02,Wunderground v.1.15,2013-06-10 06:20:00,
2013-06-10 02:21:00,66.2,63.8,29.81,ESE,117,0.0,2.0,92,0.00,,,0.02,Wunderground v.1.15,2013-06-10 06:21:00,
2013-06-10 02:22:00,66.2,63.8,29.82,ESE,117,1.0,2.0,92,0.00,,,0.02,Wunderground v.1.15,2013-06-10 06:22:00,
2013-06-10 02:23:00,66.2,63.8,29.81,ESE,117,0.0,2.0,92,0.00,,,0.02,Wunderground v.1.15,2013-06-10 06:23:00,
2013-06-10 02:24:00,66.2,63.8,29.81,ESE,117,0.0,2.0,92,0.00,,,0.02,Wunderground v.1.15,2013-06-10 06:24:00,
2013-06-10 02:25:00,66.2,63.8,29.81,ESE,117,0.0,2.0,92,0.00,,,0.02,Wunderground v.1.15,2013-06-10 06:25:00,
2013-06-10 02:26:00,66.1,63.7,29.81,ESE,117,1.0,2.0,92,0.00,,,0.02,Wunderground v.1.15,2013-06-10 06:26:00,
2013-06-10 02:27:00,66.1,63.7,29.81,ESE,117,0.0,2.0,92,0.00,,,0.02,Wunderground v.1.15,2013-06-10 06:27:00,
2013-06-10 02:28:00,66.1,63.7,29.81,ESE,117,0.0,2.0,92,0.00,,,0.02,Wunderground v.1.15,2013-06-10 06:28:00,
2013-06-10 02:29:00,66.1,63.7,29.81,ESE,117,0.0,2.0,92,0.00,,,0.02,Wunderground v.1.15,2013-06-10 06:29:00,
2013-06-10 02:30:00,66.1,63.7,29.81,ESE,117,0.0,1.0,92,0.00,,,0.02,Wunderground v.1.15,2013-06-10 06:30:00,
2013-06-10 02:32:00,66.1,64.0,29.81,ESE,117,0.0,1.0,93,0.00,,,0.02,Wunderground v.1.15,2013-06-10 06:32:00,
2013-06-10 02:33:00,66.1,64.0,29.81,ESE,117,1.0,1.0,93,0.00,,,0.02,Wunderground v.1.15,2013-06-10 06:33:00,
2013-06-10 02:34:00,66.0,63.9,29.81,ESE,117,0.0,1.0,93,0.00,,,0.02,Wunderground v.1.15,2013-06-10 06:34:00,
2013-06-10 02:35:00,66.0,63.9,29.81,ESE,117,1.0,1.0,93,0.00,,,0.02,Wunderground v.1.15,2013-06-10 06:35:00,
2013-06-10 02:37:00,65.9,63.8,29.81,East,101,0.0,3.0,93,0.00,,,0.02,Wunderground v.1.15,2013-06-10 06:37:00,
2013-06-10 02:38:00,65.9,63.8,29.81,East,101,1.0,3.0,93,0.00,,,0.02,Wunderground v.1.15,2013-06-10 06:38:00,
2013-06-10 02:39:00,65.9,63.8,29.81,East,101,1.0,3.0,93,0.00,,,0.02,Wunderground v.1.15,2013-06-10 06:39:00,
2013-06-10 02:40:00,65.9,63.8,29.81,East,101,0.0,0.0,93,0.00,,,0.02,Wunderground v.1.15,2013-06-10 06:40:00,
2013-06-10 02:42:00,65.8,63.7,29.81,East,96,0.0,1.0,93,0.00,,,0.02,Wunderground v.1.15,2013-06-10 06:42:00,
2013-06-10 02:43:00,65.8,63.7,29.81,ESE,118,1.0,2.0,93,0.00,,,0.02,Wunderground v.1.15,2013-06-10 06:43:00,
2013-06-10 02:44:00,65.8,63.7,29.81,ESE,118,1.0,2.0,93,0.00,,,0.02,Wunderground v.1.15,2013-06-10 06:44:00,
2013-06-10 02:45:00,65.8,63.7,29.81,ESE,118,0.0,2.0,93,0.00,,,0.02,Wunderground v.1.15,2013-06-10 06:45:00,
2013-06-10 02:47:00,65.8,63.7,29.81,ESE,118,0.0,2.0,93,0.00,,,0.02,Wunderground v.1.15,2013-06-10 06:47:00,
2013-06-10 02:48:00,65.8,63.7,29.81,ESE,118,0.0,2.0,93,0.00,,,0.02,Wunderground v.1.15,2013-06-10 06:48:00,
2013-06-10 02:49:00,65.7,63.6,29.81,ESE,118,0.0,2.0,93,0.00,,,0.02,Wunderground v.1.15,2013-06-10 06:49:00,
2013-06-10 02:50:00,65.7,63.6,29.81,ESE,118,0.0,1.0,93,0.00,,,0.02,Wunderground v.1.15,2013-06-10 06:50:00,
2013-06-10 02:51:00,65.7,63.6,29.81,ESE,118,1.0,2.0,93,0.00,,,0.02,Wunderground v.1.15,2013-06-10 06:51:00,
2013-06-10 02:53:00,65.7,63.9,29.81,ESE,118,0.0,2.0,94,0.00,,,0.03,Wunderground v.1.15,2013-06-10 06:53:00,
2013-06-10 02:55:00,65.7,63.9,29.81,ESE,118,0.0,2.0,94,0.00,,,0.03,Wunderground v.1.15,2013-06-10 06:55:00,
2013-06-10 02:56:00,65.6,63.8,29.81,ESE,118,0.0,2.0,94,0.00,,,0.03,Wunderground v.1.15,2013-06-10 06:56:00,
2013-06-10 02:58:00,65.6,63.8,29.81,ESE,118,0.0,2.0,94,0.00,,,0.03,Wunderground v.1.15,2013-06-10 06:58:00,
2013-06-10 02:59:00,65.6,63.8,29.81,ESE,118,0.0,2.0,94,0.00,,,0.03,Wunderground v.1.15,2013-06-10 06:59:00,
2013-06-10 03:00:00,65.5,63.7,29.81,ESE,118,0.0,0.0,94,0.00,,,0.03,Wunderground v.1.15,2013-06-10 07:00:00,
2013-06-10 03:01:00,65.5,63.7,29.81,ESE,118,0.0,0.0,94,0.07,,,0.04,Wunderground v.1.15,2013-06-10 07:01:00,
2013-06-10 03:03:00,65.5,63.7,29.81,ESE,118,0.0,0.0,94,0.07,,,0.04,Wunderground v.1.15,2013-06-10 07:03:00,
2013-06-10 03:04:00,65.5,63.7,29.81,ESE,118,1.0,1.0,94,0.07,,,0.04,Wunderground v.1.15,2013-06-10 07:04:00,
2013-06-10 03:05:00,65.4,63.6,29.81,ESE,118,0.0,1.0,94,0.07,,,0.04,Wunderground v.1.15,2013-06-10 07:05:00,
2013-06-10 03:06:00,65.4,63.6,29.81,ESE,118,0.0,1.0,94,0.07,,,0.04,Wunderground v.1.15,2013-06-10 07:06:00,
2013-06-10 03:07:00,65.4,63.6,29.81,ESE,118,0.0,1.0,94,0.07,,,0.04,Wunderground v.1.15,2013-06-10 07:07:00,
2013-06-10 03:09:00,65.3,63.5,29.81,ESE,118,0.0,1.0,94,0.07,,,0.04,Wunderground v.1.15,2013-06-10 07:09:00,
2013-06-10 03:10:00,65.3,63.8,29.81,ESE,118,0.0,0.0,95,0.06,,,0.04,Wunderground v.1.15,2013-06-10 07:10:00,
2013-06-10 03:11:00,65.3,63.8,29.81,ESE,118,0.0,0.0,95,0.06,,,0.05,Wunderground v.1.15,2013-06-10 07:11:00,
2013-06-10 03:12:00,65.3,63.8,29.81,ESE,118,0.0,0.0,95,0.06,,,0.05,Wunderground v.1.15,2013-06-10 07:12:00,
2013-06-10 03:14:00,65.2,63.7,29.81,ESE,118,0.0,0.0,95,0.06,,,0.05,Wunderground v.1.15,2013-06-10 07:14:00,
2013-06-10 03:15:00,65.2,63.7,29.81,ESE,118,0.0,0.0,95,0.06,,,0.05,Wunderground v.1.15,2013-06-10 07:15:00,
2013-06-10 03:17:00,65.2,63.7,29.80,ESE,118,0.0,0.0,95,0.06,,,0.05,Wunderground v.1.15,2013-06-10 07:17:00,
2013-06-10 03:19:00,65.2,63.7,29.80,ESE,118,0.0,0.0,95,0.06,,,0.05,Wunderground v.1.15,2013-06-10 07:19:00,
2013-06-10 03:20:00,65.1,63.6,29.80,ESE,118,0.0,0.0,95,0.06,,,0.05,Wunderground v.1.15,2013-06-10 07:20:00,
2013-06-10 03:22:00,65.1,63.6,29.80,ESE,118,0.0,0.0,95,0.05,,,0.05,Wunderground v.1.15,2013-06-10 07:22:00,
2013-06-10 03:25:00,65.0,63.5,29.80,ESE,118,0.0,0.0,95,0.05,,,0.06,Wunderground v.1.15,2013-06-10 07:25:00,
2013-06-10 03:27:00,65.1,63.9,29.80,ESE,118,0.0,0.0,96,0.05,,,0.06,Wunderground v.1.15,2013-06-10 07:27:00,
2013-06-10 03:30:00,65.0,63.8,29.80,ESE,118,0.0,0.0,96,0.05,,,0.06,Wunderground v.1.15,2013-06-10 07:30:00,
2013-06-10 03:31:00,65.0,63.8,29.80,ESE,118,0.0,0.0,96,0.05,,,0.06,Wunderground v.1.15,2013-06-10 07:31:00,
2013-06-10 03:32:00,65.0,63.8,29.80,ESE,118,0.0,0.0,96,0.05,,,0.06,Wunderground v.1.15,2013-06-10 07:32:00,
2013-06-10 03:33:00,65.0,63.8,29.79,ESE,118,0.0,0.0,96,0.07,,,0.07,Wunderground v.1.15,2013-06-10 07:33:00,
2013-06-10 03:35:00,65.0,63.8,29.80,ESE,118,0.0,0.0,96,0.07,,,0.07,Wunderground v.1.15,2013-06-10 07:35:00,
2013-06-10 03:36:00,65.0,63.8,29.80,ESE,118,0.0,0.0,96,0.07,,,0.07,Wunderground v.1.15,2013-06-10 07:36:00,
2013-06-10 03:37:00,65.0,63.8,29.79,ESE,118,0.0,0.0,96,0.07,,,0.07,Wunderground v.1.15,2013-06-10 07:37:00,
2013-06-10 03:38:00,65.0,63.8,29.79,ESE,118,0.0,0.0,96,0.07,,,0.07,Wunderground v.1.15,2013-06-10 07:38:00,
2013-06-10 03:40:00,64.9,63.7,29.79,ESE,118,0.0,0.0,96,0.09,,,0.08,Wunderground v.1.15,2013-06-10 07:40:00,
2013-06-10 03:41:00,64.9,63.7,29.79,ESE,118,0.0,0.0,96,0.09,,,0.08,Wunderground v.1.15,2013-06-10 07:41:00,
2013-06-10 03:42:00,64.9,63.7,29.79,ESE,118,0.0,0.0,96,0.09,,,0.08,Wunderground v.1.15,2013-06-10 07:42:00,
2013-06-10 03:43:00,64.8,63.6,29.79,ESE,118,0.0,0.0,96,0.09,,,0.08,Wunderground v.1.15,2013-06-10 07:43:00,
2013-06-10 03:45:00,64.8,63.6,29.79,ESE,118,0.0,0.0,96,0.09,,,0.08,Wunderground v.1.15,2013-06-10 07:45:00,
2013-06-10 03:46:00,64.7,63.5,29.79,ESE,118,0.0,0.0,96,0.08,,,0.08,Wunderground v.1.15,2013-06-10 07:46:00,
2013-06-10 03:47:00,64.7,63.5,29.79,ESE,118,0.0,0.0,96,0.07,,,0.08,Wunderground v.1.15,2013-06-10 07:47:00,
2013-06-10 03:49:00,64.6,63.4,29.79,ESE,118,0.0,0.0,96,0.06,,,0.09,Wunderground v.1.15,2013-06-10 07:49:00,
2013-06-10 03:50:00,64.6,63.4,29.79,ESE,118,0.0,0.0,96,0.06,,,0.09,Wunderground v.1.15,2013-06-10 07:50:00,
2013-06-10 03:51:00,64.7,63.5,29.79,ESE,118,0.0,0.0,96,0.06,,,0.09,Wunderground v.1.15,2013-06-10 07:51:00,
2013-06-10 03:52:00,64.7,63.5,29.79,ESE,118,0.0,0.0,96,0.06,,,0.09,Wunderground v.1.15,2013-06-10 07:52:00,
2013-06-10 03:54:00,64.7,63.5,29.78,ESE,118,0.0,0.0,96,0.06,,,0.09,Wunderground v.1.15,2013-06-10 07:54:00,
2013-06-10 03:55:00,64.8,63.6,29.79,ESE,118,0.0,0.0,96,0.06,,,0.09,Wunderground v.1.15,2013-06-10 07:55:00,
2013-06-10 03:57:00,64.8,63.6,29.78,ESE,118,0.0,0.0,96,0.06,,,0.09,Wunderground v.1.15,2013-06-10 07:57:00,
2013-06-10 04:00:00,64.8,63.6,29.78,ESE,118,0.0,0.0,96,0.05,,,0.09,Wunderground v.1.15,2013-06-10 08:00:00,
2013-06-10 04:02:00,64.8,63.9,29.79,ESE,118,0.0,0.0,97,0.04,,,0.09,Wunderground v.1.15,2013-06-10 08:02:00,
2013-06-10 04:03:00,64.8,63.9,29.78,ESE,118,0.0,0.0,97,1.37,,,0.11,Wunderground v.1.15,2013-06-10 08:03:00,
2013-06-10 04:05:00,64.7,63.5,29.78,ESE,118,0.0,0.0,96,0.51,,,0.13,Wunderground v.1.15,2013-06-10 08:05:00,
2013-06-10 04:06:00,64.6,63.4,29.78,ESE,118,0.0,0.0,96,0.44,,,0.13,Wunderground v.1.15,2013-06-10 08:06:00,
2013-06-10 04:07:00,64.7,63.8,29.78,ESE,118,0.0,0.0,97,0.24,,,0.13,Wunderground v.1.15,2013-06-10 08:07:00,
2013-06-10 04:08:00,64.7,63.8,29.78,ESE,118,0.0,0.0,97,0.16,,,0.13,Wunderground v.1.15,2013-06-10 08:08:00,
2013-06-10 04:11:00,64.8,63.9,29.78,ESE,118,0.0,0.0,97,0.09,,,0.13,Wunderground v.1.15,2013-06-10 08:11:00,
2013-06-10 04:12:00,64.8,63.9,29.78,ESE,118,0.0,0.0,97,0.08,,,0.13,Wunderground v.1.15,2013-06-10 08:12:00,
2013-06-10 04:13:00,64.8,63.9,29.78,ESE,118,0.0,0.0,97,0.07,,,0.13,Wunderground v.1.15,2013-06-10 08:13:00,
2013-06-10 04:16:00,64.9,64.0,29.78,ESE,118,0.0,0.0,97,0.05,,,0.13,Wunderground v.1.15,2013-06-10 08:16:00,
2013-06-10 04:17:00,64.9,64.0,29.78,ESE,118,0.0,0.0,97,0.05,,,0.13,Wunderground v.1.15,2013-06-10 08:17:00,
2013-06-10 04:18:00,64.9,64.0,29.78,ESE,118,0.0,0.0,97,0.04,,,0.13,Wunderground v.1.15,2013-06-10 08:18:00,
2013-06-10 04:19:00,64.9,64.0,29.78,ESE,118,0.0,0.0,97,0.04,,,0.13,Wunderground v.1.15,2013-06-10 08:19:00,
2013-06-10 04:21:00,64.8,63.9,29.78,ESE,118,0.0,0.0,97,0.04,,,0.13,Wunderground v.1.15,2013-06-10 08:21:00,
2013-06-10 04:23:00,64.7,63.8,29.78,ESE,118,0.0,0.0,97,0.00,,,0.13,Wunderground v.1.15,2013-06-10 08:23:00,
2013-06-10 04:24:00,64.5,63.6,29.78,ESE,118,0.0,0.0,97,0.00,,,0.13,Wunderground v.1.15,2013-06-10 08:24:00,
2013-06-10 04:27:00,64.4,63.5,29.77,ESE,118,0.0,0.0,97,0.00,,,0.13,Wunderground v.1.15,2013-06-10 08:27:00,
2013-06-10 04:28:00,64.4,63.5,29.77,ESE,118,0.0,0.0,97,0.00,,,0.13,Wunderground v.1.15,2013-06-10 08:28:00,
2013-06-10 04:29:00,64.4,63.5,29.77,ESE,118,0.0,0.0,97,0.00,,,0.13,Wunderground v.1.15,2013-06-10 08:29:00,
2013-06-10 04:30:00,64.4,63.5,29.77,ESE,118,0.0,0.0,97,0.00,,,0.13,Wunderground v.1.15,2013-06-10 08:30:00,
2013-06-10 04:32:00,64.4,63.5,29.77,ESE,118,0.0,0.0,97,0.00,,,0.13,Wunderground v.1.15,2013-06-10 08:32:00,
2013-06-10 04:33:00,64.4,63.5,29.77,ESE,118,0.0,0.0,97,0.00,,,0.14,Wunderground v.1.15,2013-06-10 08:33:00,
2013-06-10 04:34:00,64.4,63.5,29.77,ESE,118,0.0,0.0,97,0.00,,,0.14,Wunderground v.1.15,2013-06-10 08:34:00,
2013-06-10 04:35:00,64.4,63.5,29.77,ESE,118,0.0,0.0,97,0.00,,,0.14,Wunderground v.1.15,2013-06-10 08:35:00,
2013-06-10 04:37:00,64.4,63.5,29.77,ESE,118,0.0,0.0,97,0.00,,,0.14,Wunderground v.1.15,2013-06-10 08:37:00,
2013-06-10 04:38:00,64.4,63.5,29.77,ESE,118,0.0,0.0,97,0.00,,,0.14,Wunderground v.1.15,2013-06-10 08:38:00,
2013-06-10 04:39:00,64.5,63.6,29.77,ESE,118,0.0,0.0,97,0.00,,,0.14,Wunderground v.1.15,2013-06-10 08:39:00,
2013-06-10 04:40:00,64.4,63.5,29.77,ESE,118,0.0,0.0,97,0.00,,,0.14,Wunderground v.1.15,2013-06-10 08:40:00,
2013-06-10 04:42:00,64.5,63.6,29.77,ESE,118,0.0,0.0,97,0.00,,,0.14,Wunderground v.1.15,2013-06-10 08:42:00,
2013-06-10 04:43:00,64.5,63.6,29.77,ESE,118,0.0,0.0,97,0.00,,,0.14,Wunderground v.1.15,2013-06-10 08:43:00,
2013-06-10 04:44:00,64.7,64.1,29.77,ESE,118,0.0,0.0,98,0.05,,,0.16,Wunderground v.1.15,2013-06-10 08:44:00,
2013-06-10 04:45:00,64.7,64.1,29.77,ESE,118,0.0,0.0,98,1.16,,,0.16,Wunderground v.1.15,2013-06-10 08:45:00,
2013-06-10 04:47:00,64.9,64.3,29.77,ESE,118,0.0,0.0,98,0.24,,,0.17,Wunderground v.1.15,2013-06-10 08:47:00,
2013-06-10 04:48:00,64.9,64.3,29.77,ESE,118,0.0,0.0,98,0.18,,,0.17,Wunderground v.1.15,2013-06-10 08:48:00,
2013-06-10 04:50:00,64.9,64.0,29.76,ESE,118,0.0,0.0,97,0.13,,,0.17,Wunderground v.1.15,2013-06-10 08:50:00,
2013-06-10 04:53:00,65.0,64.1,29.76,ESE,118,0.0,1.0,97,0.08,,,0.17,Wunderground v.1.15,2013-06-10 08:53:00,
2013-06-10 04:54:00,64.9,64.0,29.76,ESE,118,0.0,1.0,97,0.07,,,0.17,Wunderground v.1.15,2013-06-10 08:54:00,
2013-06-10 04:55:00,64.9,64.0,29.76,ESE,118,0.0,1.0,97,0.06,,,0.17,Wunderground v.1.15,2013-06-10 08:55:00,
2013-06-10 04:56:00,65.0,64.1,29.76,ESE,118,0.0,1.0,97,0.06,,,0.17,Wunderground v.1.15,2013-06-10 08:56:00,
2013-06-10 04:58:00,65.0,64.1,29.76,ESE,118,0.0,1.0,97,0.04,,,0.17,Wunderground v.1.15,2013-06-10 08:58:00,
2013-06-10 04:59:00,65.0,64.1,29.76,ESE,118,0.0,1.0,97,0.04,,,0.17,Wunderground v.1.15,2013-06-10 08:59:00,
2013-06-10 05:01:00,65.0,64.1,29.76,ESE,118,0.0,0.0,97,0.04,,,0.17,Wunderground v.1.15,2013-06-10 09:01:00,
2013-06-10 05:02:00,65.1,64.2,29.76,ESE,118,0.0,0.0,97,0.04,,,0.17,Wunderground v.1.15,2013-06-10 09:02:00,
2013-06-10 05:04:00,65.1,64.2,29.76,ESE,118,0.0,0.0,97,0.00,,,0.17,Wunderground v.1.15,2013-06-10 09:04:00,
2013-06-10 05:07:00,65.0,64.1,29.76,ESE,118,0.0,0.0,97,0.00,,,0.17,Wunderground v.1.15,2013-06-10 09:07:00,
2013-06-10 05:09:00,64.9,64.0,29.76,East,87,0.0,2.0,97,0.00,,,0.17,Wunderground v.1.15,2013-06-10 09:09:00,
2013-06-10 05:12:00,65.0,64.1,29.76,East,87,0.0,1.0,97,0.00,,,0.17,Wunderground v.1.15,2013-06-10 09:12:00,
2013-06-10 05:14:00,65.2,64.3,29.76,East,99,0.0,2.0,97,0.00,,,0.17,Wunderground v.1.15,2013-06-10 09:14:00,
2013-06-10 05:17:00,65.2,64.6,29.76,East,92,1.0,3.0,98,0.00,,,0.17,Wunderground v.1.15,2013-06-10 09:17:00,
2013-06-10 05:18:00,65.2,64.6,29.76,East,92,0.0,3.0,98,0.00,,,0.17,Wunderground v.1.15,2013-06-10 09:18:00,
2013-06-10 05:19:00,65.2,64.3,29.76,East,92,0.0,3.0,97,0.00,,,0.17,Wunderground v.1.15,2013-06-10 09:19:00,
2013-06-10 05:20:00,65.2,64.3,29.76,East,92,0.0,0.0,97,0.00,,,0.17,Wunderground v.1.15,2013-06-10 09:20:00,
2013-06-10 05:22:00,65.2,64.3,29.76,East,93,0.0,3.0,97,0.00,,,0.17,Wunderground v.1.15,2013-06-10 09:22:00,
2013-06-10 05:23:00,65.2,64.3,29.76,East,93,0.0,3.0,97,0.00,,,0.17,Wunderground v.1.15,2013-06-10 09:23:00,
2013-06-10 05:24:00,65.2,64.3,29.76,East,93,0.0,3.0,97,0.00,,,0.17,Wunderground v.1.15,2013-06-10 09:24:00,
2013-06-10 05:25:00,65.2,64.3,29.76,East,93,0.0,3.0,97,0.00,,,0.17,Wunderground v.1.15,2013-06-10 09:25:00,
2013-06-10 05:28:00,65.3,64.4,29.76,East,93,0.0,3.0,97,0.00,,,0.17,Wunderground v.1.15,2013-06-10 09:28:00,
2013-06-10 05:29:00,65.2,64.3,29.76,East,93,0.0,3.0,97,0.00,,,0.17,Wunderground v.1.15,2013-06-10 09:29:00,
2013-06-10 05:31:00,65.2,64.3,29.76,East,93,0.0,0.0,97,0.00,,,0.17,Wunderground v.1.15,2013-06-10 09:31:00,
2013-06-10 05:33:00,65.2,64.3,29.76,East,92,0.0,1.0,97,0.00,,,0.17,Wunderground v.1.15,2013-06-10 09:33:00,
2013-06-10 05:34:00,65.2,64.3,29.76,East,92,0.0,1.0,97,0.00,,,0.17,Wunderground v.1.15,2013-06-10 09:34:00,
2013-06-10 05:36:00,65.2,64.3,29.76,East,92,0.0,1.0,97,0.00,,,0.17,Wunderground v.1.15,2013-06-10 09:36:00,
2013-06-10 05:38:00,65.3,64.4,29.76,East,92,0.0,1.0,97,0.00,,,0.17,Wunderground v.1.15,2013-06-10 09:38:00,
2013-06-10 05:40:00,65.3,64.4,29.76,East,92,0.0,0.0,97,0.00,,,0.17,Wunderground v.1.15,2013-06-10 09:40:00,
2013-06-10 05:41:00,65.3,64.4,29.76,East,92,0.0,0.0,97,0.00,,,0.17,Wunderground v.1.15,2013-06-10 09:41:00,
2013-06-10 05:43:00,65.3,64.7,29.76,East,92,0.0,0.0,98,0.00,,,0.17,Wunderground v.1.15,2013-06-10 09:43:00,
2013-06-10 05:45:00,65.3,64.7,29.76,East,92,0.0,0.0,98,0.00,,,0.17,Wunderground v.1.15,2013-06-10 09:45:00,
2013-06-10 05:47:00,65.4,64.8,29.76,East,92,0.0,0.0,98,0.00,,,0.17,Wunderground v.1.15,2013-06-10 09:47:00,
2013-06-10 05:48:00,65.4,64.8,29.76,East,92,0.0,0.0,98,0.00,,,0.17,Wunderground v.1.15,2013-06-10 09:48:00,
2013-06-10 05:49:00,65.4,64.8,29.76,East,92,0.0,0.0,98,0.00,,,0.17,Wunderground v.1.15,2013-06-10 09:49:00,
2013-06-10 05:50:00,65.4,64.8,29.76,East,96,0.0,1.0,98,0.00,,,0.17,Wunderground v.1.15,2013-06-10 09:50:00,
2013-06-10 05:52:00,65.4,64.8,29.76,East,96,0.0,1.0,98,0.00,,,0.17,Wunderground v.1.15,2013-06-10 09:52:00,
2013-06-10 05:54:00,65.4,64.8,29.76,East,96,0.0,1.0,98,0.00,,,0.17,Wunderground v.1.15,2013-06-10 09:54:00,
2013-06-10 05:55:00,65.4,64.8,29.75,East,96,0.0,1.0,98,0.00,,,0.17,Wunderground v.1.15,2013-06-10 09:55:00,
2013-06-10 05:57:00,65.4,64.8,29.75,East,96,0.0,1.0,98,0.00,,,0.17,Wunderground v.1.15,2013-06-10 09:57:00,
2013-06-10 05:59:00,65.4,64.8,29.75,East,96,0.0,1.0,98,0.00,,,0.17,Wunderground v.1.15,2013-06-10 09:59:00,
2013-06-10 06:00:00,65.4,64.8,29.75,ENE,65,0.0,1.0,98,0.00,,,0.17,Wunderground v.1.15,2013-06-10 10:00:00,
2013-06-10 06:02:00,65.4,64.8,29.75,ENE,65,0.0,1.0,98,0.00,,,0.17,Wunderground v.1.15,2013-06-10 10:02:00,
2013-06-10 06:04:00,65.5,64.9,29.75,ENE,67,0.0,1.0,98,0.00,,,0.17,Wunderground v.1.15,2013-06-10 10:04:00,
2013-06-10 06:05:00,65.4,64.8,29.75,ENE,67,0.0,1.0,98,0.00,,,0.17,Wunderground v.1.15,2013-06-10 10:05:00,
2013-06-10 06:06:00,65.4,64.8,29.75,ENE,67,0.0,1.0,98,0.00,,,0.17,Wunderground v.1.15,2013-06-10 10:06:00,
2013-06-10 06:08:00,65.5,64.9,29.75,ENE,67,0.0,1.0,98,0.00,,,0.17,Wunderground v.1.15,2013-06-10 10:08:00,
2013-06-10 06:09:00,65.5,64.9,29.76,ENE,67,0.0,1.0,98,0.00,,,0.17,Wunderground v.1.15,2013-06-10 10:09:00,
2013-06-10 06:10:00,65.4,64.8,29.76,ENE,67,0.0,0.0,98,0.00,,,0.17,Wunderground v.1.15,2013-06-10 10:10:00,
2013-06-10 06:11:00,65.5,64.9,29.76,ENE,67,0.0,0.0,98,0.00,,,0.17,Wunderground v.1.15,2013-06-10 10:11:00,
2013-06-10 06:13:00,65.5,64.9,29.76,ENE,67,0.0,0.0,98,0.00,,,0.17,Wunderground v.1.15,2013-06-10 10:13:00,
2013-06-10 06:15:00,65.5,64.9,29.76,ENE,67,0.0,0.0,98,0.00,,,0.17,Wunderground v.1.15,2013-06-10 10:15:00,
2013-06-10 06:16:00,65.5,64.9,29.76,ENE,67,0.0,0.0,98,0.00,,,0.17,Wunderground v.1.15,2013-06-10 10:16:00,
2013-06-10 06:19:00,65.5,64.9,29.76,ENE,67,0.0,0.0,98,0.00,,,0.17,Wunderground v.1.15,2013-06-10 10:19:00,
2013-06-10 06:20:00,65.5,64.9,29.76,ENE,67,0.0,0.0,98,0.00,,,0.17,Wunderground v.1.15,2013-06-10 10:20:00,
2013-06-10 06:21:00,65.5,64.9,29.76,ENE,67,0.0,0.0,98,0.00,,,0.17,Wunderground v.1.15,2013-06-10 10:21:00,
2013-06-10 06:24:00,65.5,64.9,29.76,ENE,67,0.0,0.0,98,0.00,,,0.17,Wunderground v.1.15,2013-06-10 10:24:00,
2013-06-10 06:25:00,65.5,64.9,29.76,ENE,67,0.0,0.0,98,0.00,,,0.17,Wunderground v.1.15,2013-06-10 10:25:00,
2013-06-10 06:26:00,65.5,64.9,29.76,ENE,67,0.0,1.0,98,0.00,,,0.17,Wunderground v.1.15,2013-06-10 10:26:00,
2013-06-10 06:27:00,65.5,64.9,29.76,ENE,67,0.0,1.0,98,0.00,,,0.17,Wunderground v.1.15,2013-06-10 10:27:00,
2013-06-10 06:29:00,65.5,64.9,29.75,ENE,67,0.0,1.0,98,0.00,,,0.17,Wunderground v.1.15,2013-06-10 10:29:00,
2013-06-10 06:30:00,65.5,64.9,29.75,ENE,67,0.0,1.0,98,0.00,,,0.17,Wunderground v.1.15,2013-06-10 10:30:00,
2013-06-10 06:31:00,65.4,64.8,29.75,ENE,67,0.0,1.0,98,0.00,,,0.17,Wunderground v.1.15,2013-06-10 10:31:00,
2013-06-10 06:32:00,65.4,64.8,29.75,ENE,67,0.0,1.0,98,0.00,,,0.17,Wunderground v.1.15,2013-06-10 10:32:00,
2013-06-10 06:34:00,65.4,64.8,29.75,ENE,71,1.0,1.0,98,0.00,,,0.17,Wunderground v.1.15,2013-06-10 10:34:00,
2013-06-10 06:36:00,65.4,64.8,29.75,ENE,71,0.0,1.0,98,0.00,,,0.17,Wunderground v.1.15,2013-06-10 10:36:00,
2013-06-10 06:37:00,65.4,64.8,29.75,ENE,71,0.0,1.0,98,0.00,,,0.17,Wunderground v.1.15,2013-06-10 10:37:00,
2013-06-10 06:39:00,65.5,64.9,29.75,ENE,71,0.0,0.0,98,0.00,,,0.17,Wunderground v.1.15,2013-06-10 10:39:00,
2013-06-10 06:41:00,65.4,64.8,29.75,ENE,71,0.0,1.0,98,0.00,,,0.17,Wunderground v.1.15,2013-06-10 10:41:00,
2013-06-10 06:42:00,65.4,64.8,29.75,ENE,71,0.0,1.0,98,0.00,,,0.17,Wunderground v.1.15,2013-06-10 10:42:00,
2013-06-10 06:43:00,65.5,64.9,29.75,ENE,71,0.0,1.0,98,0.00,,,0.17,Wunderground v.1.15,2013-06-10 10:43:00,
2013-06-10 06:45:00,65.5,64.9,29.75,ENE,71,0.0,1.0,98,0.00,,,0.17,Wunderground v.1.15,2013-06-10 10:45:00,
2013-06-10 06:46:00,65.4,64.8,29.75,ENE,71,0.0,1.0,98,0.00,,,0.17,Wunderground v.1.15,2013-06-10 10:46:00,
2013-06-10 06:47:00,65.5,64.9,29.75,ENE,71,0.0,1.0,98,0.00,,,0.17,Wunderground v.1.15,2013-06-10 10:47:00,
2013-06-10 06:48:00,65.4,64.8,29.75,ENE,71,0.0,1.0,98,0.00,,,0.17,Wunderground v.1.15,2013-06-10 10:48:00,
2013-06-10 06:50:00,65.5,64.9,29.75,ENE,71,0.0,0.0,98,0.00,,,0.17,Wunderground v.1.15,2013-06-10 10:50:00,
2013-06-10 06:52:00,65.5,64.9,29.75,ENE,71,0.0,1.0,98,0.00,,,0.17,Wunderground v.1.15,2013-06-10 10:52:00,
2013-06-10 06:53:00,65.5,64.9,29.75,ENE,71,0.0,1.0,98,0.00,,,0.17,Wunderground v.1.15,2013-06-10 10:53:00,
2013-06-10 06:55:00,65.5,64.9,29.75,ENE,71,0.0,1.0,98,0.00,,,0.17,Wunderground v.1.15,2013-06-10 10:55:00,
2013-06-10 06:57:00,65.5,64.9,29.75,ENE,71,0.0,1.0,98,0.00,,,0.17,Wunderground v.1.15,2013-06-10 10:57:00,
2013-06-10 06:58:00,65.6,65.0,29.75,ENE,71,0.0,1.0,98,0.00,,,0.17,Wunderground v.1.15,2013-06-10 10:58:00,
2013-06-10 06:59:00,65.6,65.0,29.75,ENE,71,0.0,1.0,98,0.00,,,0.17,Wunderground v.1.15,2013-06-10 10:59:00,
2013-06-10 07:01:00,65.6,65.0,29.75,ENE,71,0.0,0.0,98,0.00,,,0.17,Wunderground v.1.15,2013-06-10 11:01:00,
2013-06-10 07:02:00,65.6,65.0,29.75,ENE,71,0.0,0.0,98,0.00,,,0.17,Wunderground v.1.15,2013-06-10 11:02:00,
2013-06-10 07:03:00,65.6,65.0,29.75,ENE,71,0.0,0.0,98,0.00,,,0.17,Wunderground v.1.15,2013-06-10 11:03:00,
2013-06-10 07:04:00,65.6,65.0,29.75,ENE,71,0.0,1.0,98,0.00,,,0.17,Wunderground v.1.15,2013-06-10 11:04:00,
2013-06-10 07:06:00,65.6,65.0,29.75,East,79,0.0,1.0,98,0.00,,,0.17,Wunderground v.1.15,2013-06-10 11:06:00,
2013-06-10 07:07:00,65.7,65.1,29.75,SE,129,0.0,1.0,98,0.00,,,0.17,Wunderground v.1.15,2013-06-10 11:07:00,
2013-06-10 07:08:00,65.6,65.0,29.75,SE,129,0.0,1.0,98,0.00,,,0.17,Wunderground v.1.15,2013-06-10 11:08:00,
2013-06-10 07:10:00,65.7,65.1,29.75,SE,130,0.0,0.0,98,0.00,,,0.17,Wunderground v.1.15,2013-06-10 11:10:00,
2013-06-10 07:11:00,65.7,65.1,29.75,SE,130,0.0,1.0,98,0.00,,,0.17,Wunderground v.1.15,2013-06-10 11:11:00,
2013-06-10 07:13:00,65.7,65.1,29.75,SE,130,0.0,1.0,98,0.00,,,0.17,Wunderground v.1.15,2013-06-10 11:13:00,
2013-06-10 07:14:00,65.7,65.1,29.75,SE,130,0.0,1.0,98,0.00,,,0.17,Wunderground v.1.15,2013-06-10 11:14:00,
2013-06-10 07:15:00,65.7,65.1,29.75,SE,130,0.0,1.0,98,0.00,,,0.17,Wunderground v.1.15,2013-06-10 11:15:00,
2013-06-10 07:16:00,65.7,65.1,29.75,SE,130,0.0,1.0,98,0.00,,,0.17,Wunderground v.1.15,2013-06-10 11:16:00,
2013-06-10 07:18:00,65.8,65.2,29.75,SE,130,0.0,1.0,98,0.00,,,0.17,Wunderground v.1.15,2013-06-10 11:18:00,
2013-06-10 07:21:00,65.8,65.2,29.75,SE,130,0.0,0.0,98,0.00,,,0.17,Wunderground v.1.15,2013-06-10 11:21:00,
2013-06-10 07:23:00,65.8,65.2,29.74,SE,130,0.0,0.0,98,0.00,,,0.17,Wunderground v.1.15,2013-06-10 11:23:00,
2013-06-10 07:24:00,65.8,65.2,29.75,SE,130,0.0,0.0,98,0.00,,,0.17,Wunderground v.1.15,2013-06-10 11:24:00,
2013-06-10 07:26:00,65.8,65.2,29.74,SE,130,0.0,1.0,98,0.00,,,0.17,Wunderground v.1.15,2013-06-10 11:26:00,
2013-06-10 07:28:00,65.9,65.3,29.75,SE,130,0.0,1.0,98,0.00,,,0.17,Wunderground v.1.15,2013-06-10 11:28:00,
2013-06-10 07:29:00,65.9,65.3,29.75,East,90,0.0,1.0,98,0.00,,,0.17,Wunderground v.1.15,2013-06-10 11:29:00,
2013-06-10 07:31:00,66.0,65.4,29.74,East,84,0.0,0.0,98,0.00,,,0.17,Wunderground v.1.15,2013-06-10 11:31:00,
2013-06-10 07:32:00,66.0,65.4,29.75,East,82,0.0,0.0,98,0.00,,,0.17,Wunderground v.1.15,2013-06-10 11:32:00,
2013-06-10 07:33:00,66.0,65.4,29.75,East,82,0.0,0.0,98,0.00,,,0.17,Wunderground v.1.15,2013-06-10 11:33:00,
2013-06-10 07:34:00,66.0,65.4,29.75,East,81,0.0,0.0,98,0.00,,,0.17,Wunderground v.1.15,2013-06-10 11:34:00,
2013-06-10 07:37:00,66.1,65.5,29.75,East,80,0.0,1.0,98,0.00,,,0.17,Wunderground v.1.15,2013-06-10 11:37:00,
2013-06-10 07:38:00,66.2,65.6,29.75,NNE,12,0.0,1.0,98,0.00,,,0.17,Wunderground v.1.15,2013-06-10 11:38:00,
2013-06-10 07:39:00,66.2,65.6,29.74,NNE,18,0.0,1.0,98,0.00,,,0.17,Wunderground v.1.15,2013-06-10 11:39:00,
2013-06-10 07:42:00,66.4,65.8,29.75,NNE,18,0.0,0.0,98,0.00,,,0.17,Wunderground v.1.15,2013-06-10 11:42:00,
2013-06-10 07:43:00,66.5,65.9,29.74,ENE,77,0.0,1.0,98,0.00,,,0.17,Wunderground v.1.15,2013-06-10 11:43:00,
2013-06-10 07:44:00,66.6,66.0,29.74,ENE,77,0.0,1.0,98,0.00,,,0.17,Wunderground v.1.15,2013-06-10 11:44:00,
2013-06-10 07:47:00,66.6,66.0,29.74,East,87,0.0,1.0,98,0.00,,,0.17,Wunderground v.1.15,2013-06-10 11:47:00,
2013-06-10 07:48:00,66.6,66.0,29.74,East,87,0.0,1.0,98,0.00,,,0.17,Wunderground v.1.15,2013-06-10 11:48:00,
2013-06-10 07:50:00,66.6,66.0,29.74,East,87,0.0,0.0,98,0.00,,,0.17,Wunderground v.1.15,2013-06-10 11:50:00,
2013-06-10 07:52:00,66.6,66.0,29.74,East,87,0.0,0.0,98,0.00,,,0.17,Wunderground v.1.15,2013-06-10 11:52:00,
2013-06-10 07:53:00,66.6,66.0,29.74,East,87,0.0,0.0,98,0.00,,,0.17,Wunderground v.1.15,2013-06-10 11:53:00,
2013-06-10 07:55:00,66.7,66.1,29.75,ESE,105,0.0,0.0,98,0.00,,,0.17,Wunderground v.1.15,2013-06-10 11:55:00,
2013-06-10 07:58:00,66.7,66.1,29.75,ESE,104,0.0,0.0,98,0.00,,,0.17,Wunderground v.1.15,2013-06-10 11:58:00,
2013-06-10 08:00:00,66.6,66.0,29.74,ESE,103,0.0,0.0,98,0.00,,,0.17,Wunderground v.1.15,2013-06-10 12:00:00,
2013-06-10 08:03:00,66.7,66.1,29.74,ENE,65,0.0,0.0,98,0.00,,,0.17,Wunderground v.1.15,2013-06-10 12:03:00,
2013-06-10 08:04:00,66.6,66.0,29.74,East,79,0.0,2.0,98,0.00,,,0.17,Wunderground v.1.15,2013-06-10 12:04:00,
2013-06-10 08:05:00,66.7,66.1,29.74,East,79,0.0,2.0,98,0.00,,,0.17,Wunderground v.1.15,2013-06-10 12:05:00,
2013-06-10 08:08:00,66.6,66.0,29.74,East,79,0.0,2.0,98,0.00,,,0.17,Wunderground v.1.15,2013-06-10 12:08:00,
2013-06-10 08:09:00,66.7,66.1,29.74,East,79,0.0,2.0,98,0.00,,,0.17,Wunderground v.1.15,2013-06-10 12:09:00,
2013-06-10 08:10:00,66.6,66.0,29.74,East,79,0.0,0.0,98,0.00,,,0.17,Wunderground v.1.15,2013-06-10 12:10:00,
2013-06-10 08:13:00,66.7,66.1,29.74,East,79,0.0,1.0,98,0.00,,,0.17,Wunderground v.1.15,2013-06-10 12:13:00,
2013-06-10 08:14:00,66.7,66.1,29.74,East,79,0.0,1.0,98,0.00,,,0.17,Wunderground v.1.15,2013-06-10 12:14:00,
2013-06-10 08:15:00,66.7,65.8,29.74,East,79,0.0,1.0,97,0.00,,,0.17,Wunderground v.1.15,2013-06-10 12:15:00,
2013-06-10 08:19:00,66.7,65.8,29.74,ENE,78,0.0,1.0,97,0.00,,,0.17,Wunderground v.1.15,2013-06-10 12:19:00,
2013-06-10 08:20:00,66.6,65.7,29.74,ENE,78,0.0,0.0,97,0.00,,,0.17,Wunderground v.1.15,2013-06-10 12:20:00,
2013-06-10 08:21:00,66.6,65.7,29.74,ENE,78,0.0,0.0,97,0.00,,,0.17,Wunderground v.1.15,2013-06-10 12:21:00,
2013-06-10 08:24:00,66.7,65.8,29.75,ENE,78,0.0,0.0,97,0.00,,,0.17,Wunderground v.1.15,2013-06-10 12:24:00,
2013-06-10 08:25:00,66.8,65.9,29.75,ENE,78,0.0,0.0,97,0.00,,,0.17,Wunderground v.1.15,2013-06-10 12:25:00,
2013-06-10 08:26:00,66.8,65.9,29.75,ENE,78,0.0,0.0,97,0.00,,,0.17,Wunderground v.1.15,2013-06-10 12:26:00,
2013-06-10 08:29:00,66.9,66.0,29.75,ENE,78,0.0,0.0,97,0.00,,,0.17,Wunderground v.1.15,2013-06-10 12:29:00,
2013-06-10 08:30:00,66.9,66.0,29.75,ENE,78,0.0,0.0,97,0.00,,,0.17,Wunderground v.1.15,2013-06-10 12:30:00,
2013-06-10 08:31:00,66.8,65.9,29.75,ENE,78,0.0,0.0,97,0.00,,,0.17,Wunderground v.1.15,2013-06-10 12:31:00,
2013-06-10 08:34:00,67.0,66.1,29.75,ENE,78,0.0,0.0,97,0.00,,,0.17,Wunderground v.1.15,2013-06-10 12:34:00,
2013-06-10 08:35:00,67.1,66.5,29.75,ENE,78,0.0,0.0,98,0.00,,,0.17,Wunderground v.1.15,2013-06-10 12:35:00,
2013-06-10 08:36:00,67.1,66.5,29.75,ENE,78,0.0,0.0,98,0.00,,,0.17,Wunderground v.1.15,2013-06-10 12:36:00,
2013-06-10 08:37:00,67.1,66.5,29.75,ENE,78,0.0,0.0,98,0.00,,,0.17,Wunderground v.1.15,2013-06-10 12:37:00,
2013-06-10 08:39:00,67.2,66.6,29.75,ENE,78,0.0,0.0,98,0.00,,,0.17,Wunderground v.1.15,2013-06-10 12:39:00,
2013-06-10 08:40:00,67.2,66.6,29.75,ENE,78,0.0,0.0,98,0.00,,,0.17,Wunderground v.1.15,2013-06-10 12:40:00,
2013-06-10 08:42:00,67.1,66.2,29.75,ENE,78,0.0,0.0,97,0.00,,,0.17,Wunderground v.1.15,2013-06-10 12:42:00,
2013-06-10 08:44:00,67.0,66.1,29.75,ENE,78,0.0,0.0,97,0.00,,,0.17,Wunderground v.1.15,2013-06-10 12:44:00,
2013-06-10 08:45:00,67.1,66.2,29.75,ENE,78,0.0,0.0,97,0.00,,,0.17,Wunderground v.1.15,2013-06-10 12:45:00,
2013-06-10 08:47:00,67.3,66.4,29.75,ENE,78,0.0,0.0,97,0.00,,,0.17,Wunderground v.1.15,2013-06-10 12:47:00,
2013-06-10 08:48:00,67.3,66.4,29.75,ENE,78,0.0,0.0,97,0.00,,,0.17,Wunderground v.1.15,2013-06-10 12:48:00,
2013-06-10 08:49:00,67.4,66.5,29.75,ENE,78,0.0,0.0,97,0.00,,,0.17,Wunderground v.1.15,2013-06-10 12:49:00,
2013-06-10 08:51:00,67.4,66.5,29.75,ENE,78,0.0,0.0,97,0.00,,,0.17,Wunderground v.1.15,2013-06-10 12:51:00,
2013-06-10 08:52:00,67.3,66.1,29.75,ENE,78,0.0,0.0,96,0.00,,,0.17,Wunderground v.1.15,2013-06-10 12:52:00,
2013-06-10 08:53:00,67.2,66.0,29.75,ENE,78,0.0,0.0,96,0.00,,,0.17,Wunderground v.1.15,2013-06-10 12:53:00,
2013-06-10 08:55:00,67.5,66.3,29.75,ENE,78,0.0,0.0,96,0.00,,,0.17,Wunderground v.1.15,2013-06-10 12:55:00,
2013-06-10 08:56:00,67.6,66.7,29.75,ENE,78,1.0,1.0,97,0.00,,,0.17,Wunderground v.1.15,2013-06-10 12:56:00,
2013-06-10 08:58:00,67.6,66.4,29.75,ENE,78,0.0,1.0,96,0.00,,,0.17,Wunderground v.1.15,2013-06-10 12:58:00,
2013-06-10 09:00:00,67.6,66.1,29.75,ENE,78,0.0,0.0,95,0.00,,,0.17,Wunderground v.1.15,2013-06-10 13:00:00,
2013-06-10 09:01:00,67.6,66.1,29.75,ENE,78,0.0,0.0,95,0.00,,,0.17,Wunderground v.1.15,2013-06-10 13:01:00,
2013-06-10 09:03:00,67.5,66.0,29.75,ENE,78,0.0,0.0,95,0.00,,,0.17,Wunderground v.1.15,2013-06-10 13:03:00,
2013-06-10 09:05:00,66.8,65.0,29.75,ENE,78,0.0,0.0,94,0.00,,,0.17,Wunderground v.1.15,2013-06-10 13:05:00,
2013-06-10 09:07:00,66.1,64.3,29.75,ENE,78,0.0,0.0,94,0.00,,,0.17,Wunderground v.1.15,2013-06-10 13:07:00,
2013-06-10 09:08:00,65.9,64.4,29.75,ENE,78,0.0,0.0,95,0.00,,,0.17,Wunderground v.1.15,2013-06-10 13:08:00,
2013-06-10 09:09:00,65.9,64.4,29.75,ENE,78,0.0,0.0,95,0.00,,,0.17,Wunderground v.1.15,2013-06-10 13:09:00,
2013-06-10 09:10:00,65.8,64.6,29.75,ENE,78,0.0,0.0,96,0.00,,,0.17,Wunderground v.1.15,2013-06-10 13:10:00,
2013-06-10 09:13:00,65.8,64.6,29.75,ENE,78,0.0,0.0,96,0.00,,,0.17,Wunderground v.1.15,2013-06-10 13:13:00,
2013-06-10 09:14:00,65.7,64.5,29.75,ENE,78,0.0,0.0,96,0.00,,,0.17,Wunderground v.1.15,2013-06-10 13:14:00,
2013-06-10 09:16:00,65.7,64.8,29.75,ENE,78,0.0,0.0,97,0.00,,,0.17,Wunderground v.1.15,2013-06-10 13:16:00,
2013-06-10 09:18:00,65.1,63.9,29.75,ENE,78,0.0,1.0,96,0.00,,,0.17,Wunderground v.1.15,2013-06-10 13:18:00,
2013-06-10 09:19:00,65.2,64.3,29.75,ENE,78,0.0,0.0,97,0.00,,,0.17,Wunderground v.1.15,2013-06-10 13:19:00,
2013-06-10 09:20:00,65.2,64.3,29.75,ENE,78,0.0,0.0,97,0.00,,,0.17,Wunderground v.1.15,2013-06-10 13:20:00,
2013-06-10 09:21:00,65.1,64.2,29.75,ENE,78,0.0,0.0,97,0.00,,,0.17,Wunderground v.1.15,2013-06-10 13:21:00,
2013-06-10 09:23:00,65.4,64.8,29.75,ENE,78,0.0,0.0,98,0.00,,,0.17,Wunderground v.1.15,2013-06-10 13:23:00,
2013-06-10 09:24:00,65.4,64.8,29.75,ENE,78,0.0,0.0,98,0.00,,,0.17,Wunderground v.1.15,2013-06-10 13:24:00,
2013-06-10 09:25:00,65.6,64.7,29.75,ENE,78,0.0,0.0,97,0.00,,,0.17,Wunderground v.1.15,2013-06-10 13:25:00,
2013-06-10 09:26:00,65.6,64.7,29.75,ENE,78,0.0,0.0,97,0.00,,,0.17,Wunderground v.1.15,2013-06-10 13:26:00,
2013-06-10 09:29:00,66.0,64.8,29.75,ENE,78,0.0,0.0,96,0.00,,,0.17,Wunderground v.1.15,2013-06-10 13:29:00,
2013-06-10 09:30:00,66.3,65.1,29.75,WSW,254,0.0,1.0,96,0.00,,,0.17,Wunderground v.1.15,2013-06-10 13:30:00,
2013-06-10 09:31:00,66.3,65.1,29.75,WSW,254,0.0,1.0,96,0.00,,,0.17,Wunderground v.1.15,2013-06-10 13:31:00,
2013-06-10 09:34:00,66.3,64.8,29.75,NE,49,1.0,1.0,95,0.00,,,0.17,Wunderground v.1.15,2013-06-10 13:34:00,
2013-06-10 09:35:00,66.2,64.7,29.75,NE,49,0.0,1.0,95,0.00,,,0.17,Wunderground v.1.15,2013-06-10 13:35:00,
2013-06-10 09:36:00,66.2,64.7,29.75,NE,46,1.0,1.0,95,0.00,,,0.17,Wunderground v.1.15,2013-06-10 13:36:00,
2013-06-10 09:39:00,65.9,64.4,29.75,NE,43,0.0,1.0,95,0.00,,,0.17,Wunderground v.1.15,2013-06-10 13:39:00,
2013-06-10 09:40:00,65.5,64.0,29.75,NE,43,0.0,1.0,95,0.00,,,0.17,Wunderground v.1.15,2013-06-10 13:40:00,
2013-06-10 09:41:00,65.4,63.9,29.75,NE,43,0.0,1.0,95,0.00,,,0.17,Wunderground v.1.15,2013-06-10 13:41:00,
2013-06-10 09:42:00,65.2,63.7,29.75,NE,44,0.0,1.0,95,0.00,,,0.17,Wunderground v.1.15,2013-06-10 13:42:00,
2013-06-10 09:44:00,64.6,62.8,29.75,NE,43,0.0,1.0,94,0.00,,,0.17,Wunderground v.1.15,2013-06-10 13:44:00,
2013-06-10 09:45:00,64.3,63.1,29.75,NE,44,1.0,1.0,96,0.00,,,0.17,Wunderground v.1.15,2013-06-10 13:45:00,
2013-06-10 09:46:00,64.3,63.1,29.75,NE,44,0.0,1.0,96,0.00,,,0.17,Wunderground v.1.15,2013-06-10 13:46:00,
2013-06-10 09:47:00,64.2,63.0,29.75,NE,44,1.0,1.0,96,0.00,,,0.17,Wunderground v.1.15,2013-06-10 13:47:00,
2013-06-10 09:49:00,64.0,62.8,29.75,WNW,302,0.0,1.0,96,0.00,,,0.17,Wunderground v.1.15,2013-06-10 13:49:00,
2013-06-10 09:51:00,63.9,62.7,29.75,WNW,302,0.0,1.0,96,0.00,,,0.17,Wunderground v.1.15,2013-06-10 13:51:00,
2013-06-10 09:52:00,63.6,62.4,29.75,WNW,302,0.0,1.0,96,0.00,,,0.17,Wunderground v.1.15,2013-06-10 13:52:00,
2013-06-10 09:53:00,63.6,62.4,29.75,WNW,302,1.0,1.0,96,0.00,,,0.17,Wunderground v.1.15,2013-06-10 13:53:00,
2013-06-10 09:56:00,63.3,62.4,29.75,WNW,302,0.0,1.0,97,0.00,,,0.17,Wunderground v.1.15,2013-06-10 13:56:00,
2013-06-10 09:57:00,63.3,62.4,29.75,WNW,302,0.0,1.0,97,0.00,,,0.17,Wunderground v.1.15,2013-06-10 13:57:00,
2013-06-10 09:59:00,63.5,62.6,29.75,SSW,211,0.0,1.0,97,0.00,,,0.17,Wunderground v.1.15,2013-06-10 13:59:00,
2013-06-10 10:01:00,63.9,63.3,29.75,SW,214,0.0,1.0,98,0.00,,,0.17,Wunderground v.1.15,2013-06-10 14:01:00,
2013-06-10 10:02:00,63.9,63.3,29.75,SW,214,0.0,1.0,98,0.00,,,0.17,Wunderground v.1.15,2013-06-10 14:02:00,
2013-06-10 10:04:00,64.1,63.5,29.75,SW,214,1.0,2.0,98,0.00,,,0.17,Wunderground v.1.15,2013-06-10 14:04:00,
2013-06-10 10:06:00,64.5,63.9,29.75,SW,214,0.0,2.0,98,0.00,,,0.17,Wunderground v.1.15,2013-06-10 14:06:00,
2013-06-10 10:07:00,64.5,63.9,29.75,SW,219,1.0,2.0,98,0.00,,,0.17,Wunderground v.1.15,2013-06-10 14:07:00,
2013-06-10 10:08:00,64.5,63.9,29.75,SW,219,1.0,2.0,98,0.00,,,0.17,Wunderground v.1.15,2013-06-10 14:08:00,
2013-06-10 10:09:00,64.5,63.6,29.75,WSW,238,1.0,2.0,97,0.00,,,0.17,Wunderground v.1.15,2013-06-10 14:09:00,
2013-06-10 10:12:00,64.4,63.5,29.75,WSW,242,1.0,3.0,97,0.00,,,0.17,Wunderground v.1.15,2013-06-10 14:12:00,
2013-06-10 10:13:00,64.5,63.6,29.75,WSW,242,1.0,3.0,97,0.00,,,0.17,Wunderground v.1.15,2013-06-10 14:13:00,
2013-06-10 10:14:00,64.4,63.5,29.75,WSW,242,0.0,3.0,97,0.00,,,0.17,Wunderground v.1.15,2013-06-10 14:14:00,
2013-06-10 10:18:00,64.4,63.5,29.75,WSW,251,1.0,3.0,97,0.00,,,0.17,Wunderground v.1.15,2013-06-10 14:18:00,
2013-06-10 10:20:00,64.4,63.5,29.75,WSW,255,1.0,1.0,97,0.00,,,0.17,Wunderground v.1.15,2013-06-10 14:20:00,
2013-06-10 10:23:00,64.6,63.7,29.75,West,259,0.0,2.0,97,0.00,,,0.17,Wunderground v.1.15,2013-06-10 14:23:00,
2013-06-10 10:26:00,64.7,63.5,29.75,West,259,0.0,2.0,96,0.00,,,0.17,Wunderground v.1.15,2013-06-10 14:26:00,
2013-06-10 10:28:00,64.8,63.9,29.75,West,259,2.0,2.0,97,0.00,,,0.17,Wunderground v.1.15,2013-06-10 14:28:00,
2013-06-10 10:29:00,64.8,63.9,29.75,West,259,1.0,2.0,97,0.00,,,0.17,Wunderground v.1.15,2013-06-10 14:29:00,
2013-06-10 10:32:00,64.7,63.8,29.75,West,259,0.0,2.0,97,0.00,,,0.17,Wunderground v.1.15,2013-06-10 14:32:00,
2013-06-10 10:34:00,64.6,63.4,29.75,West,259,1.0,2.0,96,0.00,,,0.17,Wunderground v.1.15,2013-06-10 14:34:00,
2013-06-10 10:37:00,64.3,63.1,29.75,West,259,1.0,2.0,96,0.00,,,0.17,Wunderground v.1.15,2013-06-10 14:37:00,
2013-06-10 10:39:00,64.2,63.0,29.75,West,259,0.0,2.0,96,0.00,,,0.17,Wunderground v.1.15,2013-06-10 14:39:00,
2013-06-10 10:42:00,64.3,63.4,29.75,West,259,1.0,1.0,97,0.00,,,0.17,Wunderground v.1.15,2013-06-10 14:42:00,
2013-06-10 10:44:00,64.3,63.4,29.75,West,259,0.0,2.0,97,0.00,,,0.17,Wunderground v.1.15,2013-06-10 14:44:00,
2013-06-10 10:45:00,64.4,63.5,29.75,West,259,0.0,2.0,97,0.00,,,0.17,Wunderground v.1.15,2013-06-10 14:45:00,
2013-06-10 10:47:00,64.6,63.7,29.75,West,259,0.0,2.0,97,0.00,,,0.17,Wunderground v.1.15,2013-06-10 14:47:00,
2013-06-10 10:49:00,64.8,63.9,29.75,West,259,0.0,2.0,97,0.00,,,0.17,Wunderground v.1.15,2013-06-10 14:49:00,
2013-06-10 10:50:00,65.1,64.2,29.75,West,259,0.0,0.0,97,0.00,,,0.17,Wunderground v.1.15,2013-06-10 14:50:00,
2013-06-10 10:53:00,65.5,64.3,29.75,West,263,1.0,2.0,96,0.00,,,0.17,Wunderground v.1.15,2013-06-10 14:53:00,
2013-06-10 10:54:00,65.3,63.8,29.75,West,267,0.0,3.0,95,0.00,,,0.17,Wunderground v.1.15,2013-06-10 14:54:00,
2013-06-10 10:55:00,65.3,64.1,29.75,West,267,0.0,3.0,96,0.00,,,0.17,Wunderground v.1.15,2013-06-10 14:55:00,
2013-06-10 10:58:00,65.2,63.7,29.74,West,267,1.0,3.0,95,0.00,,,0.17,Wunderground v.1.15,2013-06-10 14:58:00,
2013-06-10 10:59:00,65.2,64.0,29.74,West,267,1.0,3.0,96,0.00,,,0.17,Wunderground v.1.15,2013-06-10 14:59:00,
2013-06-10 11:00:00,65.4,64.2,29.74,West,267,2.0,2.0,96,0.00,,,0.17,Wunderground v.1.15,2013-06-10 15:00:00,
2013-06-10 11:04:00,65.7,64.2,29.75,WNW,286,1.0,3.0,95,0.00,,,0.17,Wunderground v.1.15,2013-06-10 15:04:00,
2013-06-10 11:05:00,66.0,64.5,29.75,WNW,286,2.0,3.0,95,0.00,,,0.17,Wunderground v.1.15,2013-06-10 15:05:00,
2013-06-10 11:06:00,66.1,64.6,29.75,WNW,286,0.0,3.0,95,0.00,,,0.17,Wunderground v.1.15,2013-06-10 15:06:00,
2013-06-10 11:09:00,67.1,65.6,29.74,WNW,289,3.0,3.0,95,0.00,,,0.17,Wunderground v.1.15,2013-06-10 15:09:00,
2013-06-10 11:10:00,67.1,65.3,29.74,WNW,289,2.0,3.0,94,0.00,,,0.17,Wunderground v.1.15,2013-06-10 15:10:00,
2013-06-10 11:11:00,67.2,65.1,29.74,WNW,289,3.0,3.0,93,0.00,,,0.17,Wunderground v.1.15,2013-06-10 15:11:00,
2013-06-10 11:14:00,67.0,65.2,29.75,WNW,300,1.0,3.0,94,0.00,,,0.17,Wunderground v.1.15,2013-06-10 15:14:00,
2013-06-10 11:15:00,66.9,64.8,29.74,WNW,300,3.0,3.0,93,0.00,,,0.17,Wunderground v.1.15,2013-06-10 15:15:00,
2013-06-10 11:16:00,66.8,65.0,29.75,WNW,300,1.0,3.0,94,0.00,,,0.17,Wunderground v.1.15,2013-06-10 15:16:00,
2013-06-10 11:17:00,66.7,64.6,29.75,WNW,300,0.0,3.0,93,0.00,,,0.17,Wunderground v.1.15,2013-06-10 15:17:00,
2013-06-10 11:19:00,66.5,65.0,29.75,WNW,300,1.0,3.0,95,0.00,,,0.17,Wunderground v.1.15,2013-06-10 15:19:00,
2013-06-10 11:20:00,66.4,64.6,29.75,NW,306,2.0,3.0,94,0.00,,,0.17,Wunderground v.1.15,2013-06-10 15:20:00,
2013-06-10 11:22:00,66.5,64.7,29.75,WNW,303,2.0,4.0,94,0.00,,,0.17,Wunderground v.1.15,2013-06-10 15:22:00,
2013-06-10 11:26:00,66.7,64.9,29.75,NW,315,2.0,4.0,94,0.00,,,0.17,Wunderground v.1.15,2013-06-10 15:26:00,
2013-06-10 11:27:00,66.5,64.4,29.75,NW,314,3.0,4.0,93,0.00,,,0.17,Wunderground v.1.15,2013-06-10 15:27:00,
2013-06-10 11:31:00,65.3,63.2,29.75,WNW,297,3.0,4.0,93,0.00,,,0.17,Wunderground v.1.15,2013-06-10 15:31:00,
2013-06-10 11:32:00,65.0,63.2,29.75,WNW,297,4.0,4.0,94,0.00,,,0.17,Wunderground v.1.15,2013-06-10 15:32:00,
2013-06-10 11:37:00,64.1,62.6,29.76,WNW,297,2.0,4.0,95,0.00,,,0.17,Wunderground v.1.15,2013-06-10 15:37:00,
2013-06-10 11:42:00,63.9,62.7,29.76,WNW,297,1.0,2.0,96,0.00,,,0.17,Wunderground v.1.15,2013-06-10 15:42:00,
2013-06-10 11:43:00,63.9,62.7,29.76,WNW,297,1.0,2.0,96,0.00,,,0.17,Wunderground v.1.15,2013-06-10 15:43:00,
2013-06-10 11:47:00,64.6,63.4,29.76,WSW,250,1.0,3.0,96,0.00,,,0.17,Wunderground v.1.15,2013-06-10 15:47:00,
2013-06-10 11:48:00,64.6,63.4,29.76,WNW,299,2.0,3.0,96,0.00,,,0.17,Wunderground v.1.15,2013-06-10 15:48:00,
2013-06-10 11:52:00,64.6,63.1,29.76,WNW,302,1.0,3.0,95,0.00,,,0.17,Wunderground v.1.15,2013-06-10 15:52:00,
2013-06-10 11:53:00,64.6,63.1,29.76,WNW,302,1.0,3.0,95,0.00,,,0.17,Wunderground v.1.15,2013-06-10 15:53:00,
2013-06-10 11:54:00,64.7,63.5,29.75,WNW,302,2.0,3.0,96,0.00,,,0.17,Wunderground v.1.15,2013-06-10 15:54:00,
2013-06-10 11:57:00,64.4,62.9,29.76,WNW,302,0.0,3.0,95,0.00,,,0.17,Wunderground v.1.15,2013-06-10 15:57:00,
2013-06-10 11:58:00,64.3,62.8,29.76,WNW,302,1.0,3.0,95,0.00,,,0.17,Wunderground v.1.15,2013-06-10 15:58:00,
2013-06-10 11:59:00,64.3,62.8,29.76,WNW,302,1.0,3.0,95,0.00,,,0.17,Wunderground v.1.15,2013-06-10 15:59:00,
2013-06-10 12:00:00,64.5,63.3,29.76,WNW,302,1.0,1.0,96,0.00,,,0.17,Wunderground v.1.15,2013-06-10 16:00:00,
2013-06-10 12:02:00,64.3,62.8,29.76,WNW,302,2.0,2.0,95,0.00,,,0.17,Wunderground v.1.15,2013-06-10 16:02:00,
2013-06-10 12:03:00,64.2,62.7,29.76,WNW,302,1.0,2.0,95,0.00,,,0.17,Wunderground v.1.15,2013-06-10 16:03:00,
2013-06-10 12:04:00,64.2,63.0,29.76,WNW,302,1.0,2.0,96,0.00,,,0.17,Wunderground v.1.15,2013-06-10 16:04:00,
2013-06-10 12:05:00,64.6,63.4,29.76,WNW,302,1.0,2.0,96,0.00,,,0.17,Wunderground v.1.15,2013-06-10 16:05:00,
2013-06-10 12:08:00,65.1,63.9,29.76,WNW,302,2.0,2.0,96,0.00,,,0.17,Wunderground v.1.15,2013-06-10 16:08:00,
2013-06-10 12:09:00,65.3,64.1,29.76,WNW,302,1.0,2.0,96,0.00,,,0.17,Wunderground v.1.15,2013-06-10 16:09:00,
2013-06-10 12:11:00,65.3,63.5,29.76,WNW,302,1.0,2.0,94,0.00,,,0.17,Wunderground v.1.15,2013-06-10 16:11:00,
2013-06-10 12:13:00,64.8,63.3,29.76,WNW,302,1.0,2.0,95,0.00,,,0.17,Wunderground v.1.15,2013-06-10 16:13:00,
2013-06-10 12:14:00,64.9,63.7,29.76,WNW,302,1.0,2.0,96,0.00,,,0.17,Wunderground v.1.15,2013-06-10 16:14:00,
2013-06-10 12:15:00,64.9,63.7,29.76,WNW,302,0.0,2.0,96,0.00,,,0.17,Wunderground v.1.15,2013-06-10 16:15:00,
2013-06-10 12:16:00,64.9,63.7,29.76,WNW,302,1.0,2.0,96,0.00,,,0.17,Wunderground v.1.15,2013-06-10 16:16:00,
2013-06-10 12:19:00,64.7,63.2,29.76,WNW,302,0.0,2.0,95,0.00,,,0.17,Wunderground v.1.15,2013-06-10 16:19:00,
2013-06-10 12:21:00,65.0,63.8,29.76,WNW,302,1.0,2.0,96,0.00,,,0.17,Wunderground v.1.15,2013-06-10 16:21:00,
2013-06-10 12:22:00,65.1,63.9,29.76,WNW,302,1.0,2.0,96,0.00,,,0.17,Wunderground v.1.15,2013-06-10 16:22:00,
2013-06-10 12:24:00,65.0,63.5,29.76,WNW,302,1.0,2.0,95,0.00,,,0.17,Wunderground v.1.15,2013-06-10 16:24:00,
2013-06-10 12:25:00,64.9,63.4,29.76,WNW,302,1.0,2.0,95,0.00,,,0.17,Wunderground v.1.15,2013-06-10 16:25:00,
2013-06-10 12:26:00,65.0,63.8,29.76,WNW,302,2.0,2.0,96,0.00,,,0.17,Wunderground v.1.15,2013-06-10 16:26:00,
2013-06-10 12:27:00,64.9,63.4,29.76,WNW,302,2.0,2.0,95,0.00,,,0.17,Wunderground v.1.15,2013-06-10 16:27:00,
2013-06-10 12:30:00,64.9,63.7,29.76,WNW,301,4.0,4.0,96,0.00,,,0.17,Wunderground v.1.15,2013-06-10 16:30:00,
2013-06-10 12:31:00,64.7,63.2,29.76,NW,304,9.0,9.0,95,0.00,,,0.17,Wunderground v.1.15,2013-06-10 16:31:00,
2013-06-10 12:32:00,64.7,63.5,29.76,SW,231,2.0,9.0,96,0.00,,,0.17,Wunderground v.1.15,2013-06-10 16:32:00,
2013-06-10 12:35:00,64.7,63.2,29.76,SW,229,1.0,9.0,95,0.00,,,0.17,Wunderground v.1.15,2013-06-10 16:35:00,
2013-06-10 12:36:00,65.2,64.3,29.76,West,268,1.0,9.0,97,0.00,,,0.17,Wunderground v.1.15,2013-06-10 16:36:00,
2013-06-10 12:38:00,65.5,64.3,29.76,NW,321,0.0,9.0,96,0.00,,,0.17,Wunderground v.1.15,2013-06-10 16:38:00,
2013-06-10 12:40:00,65.2,63.7,29.76,West,266,0.0,3.0,95,0.00,,,0.17,Wunderground v.1.15,2013-06-10 16:40:00,
2013-06-10 12:41:00,65.0,63.2,29.76,West,269,0.0,3.0,94,0.00,,,0.17,Wunderground v.1.15,2013-06-10 16:41:00,
2013-06-10 12:42:00,64.9,63.1,29.76,West,269,0.0,3.0,94,0.00,,,0.17,Wunderground v.1.15,2013-06-10 16:42:00,
2013-06-10 12:43:00,64.9,63.1,29.76,West,267,1.0,3.0,94,0.00,,,0.17,Wunderground v.1.15,2013-06-10 16:43:00,
2013-06-10 12:45:00,64.8,63.0,29.76,West,271,0.0,3.0,94,0.00,,,0.17,Wunderground v.1.15,2013-06-10 16:45:00,
2013-06-10 12:47:00,64.5,62.7,29.76,West,273,1.0,3.0,94,0.00,,,0.17,Wunderground v.1.15,2013-06-10 16:47:00,
2013-06-10 12:48:00,64.5,62.7,29.76,West,273,0.0,3.0,94,0.00,,,0.17,Wunderground v.1.15,2013-06-10 16:48:00,
2013-06-10 12:50:00,64.3,62.2,29.76,WNW,293,1.0,1.0,93,0.00,,,0.17,Wunderground v.1.15,2013-06-10 16:50:00,
2013-06-10 12:52:00,63.8,62.0,29.76,NW,317,0.0,2.0,94,0.00,,,0.17,Wunderground v.1.15,2013-06-10 16:52:00,
2013-06-10 12:53:00,63.8,62.0,29.76,West,273,1.0,2.0,94,0.00,,,0.17,Wunderground v.1.15,2013-06-10 16:53:00,
2013-06-10 12:54:00,63.8,62.3,29.76,West,273,0.0,2.0,95,0.00,,,0.17,Wunderground v.1.15,2013-06-10 16:54:00,
2013-06-10 12:55:00,63.6,61.8,29.76,WSW,242,0.0,2.0,94,0.00,,,0.17,Wunderground v.1.15,2013-06-10 16:55:00,
2013-06-10 12:58:00,64.1,62.6,29.76,NW,304,0.0,3.0,95,0.00,,,0.17,Wunderground v.1.15,2013-06-10 16:58:00,
2013-06-10 12:59:00,64.1,62.3,29.76,WSW,242,0.0,3.0,94,0.00,,,0.17,Wunderground v.1.15,2013-06-10 16:59:00,
2013-06-10 13:00:00,64.0,62.2,29.76,West,263,0.0,1.0,94,0.00,,,0.17,Wunderground v.1.15,2013-06-10 17:00:00,
2013-06-10 13:01:00,64.2,63.0,29.76,WNW,302,0.0,2.0,96,0.00,,,0.17,Wunderground v.1.15,2013-06-10 17:01:00,
2013-06-10 13:03:00,64.1,62.3,29.76,WNW,302,1.0,2.0,94,0.00,,,0.17,Wunderground v.1.15,2013-06-10 17:03:00,
2013-06-10 13:04:00,64.2,62.7,29.76,NW,313,0.0,2.0,95,0.00,,,0.17,Wunderground v.1.15,2013-06-10 17:04:00,
2013-06-10 13:05:00,64.3,62.8,29.76,NW,313,0.0,2.0,95,0.00,,,0.17,Wunderground v.1.15,2013-06-10 17:05:00,
2013-06-10 13:06:00,64.1,62.3,29.76,WNW,290,1.0,2.0,94,0.00,,,0.17,Wunderground v.1.15,2013-06-10 17:06:00,
2013-06-10 13:08:00,63.9,62.1,29.76,NNE,14,3.0,3.0,94,0.00,,,0.17,Wunderground v.1.15,2013-06-10 17:08:00,
2013-06-10 13:09:00,63.7,61.9,29.76,WNW,292,2.0,3.0,94,0.00,,,0.17,Wunderground v.1.15,2013-06-10 17:09:00,
2013-06-10 13:10:00,63.2,61.4,29.76,NW,306,3.0,3.0,94,0.00,,,0.17,Wunderground v.1.15,2013-06-10 17:10:00,
2013-06-10 13:12:00,62.9,61.4,29.76,NNW,340,0.0,3.0,95,0.00,,,0.17,Wunderground v.1.15,2013-06-10 17:12:00,
2013-06-10 13:13:00,62.6,61.1,29.76,SSW,212,0.0,3.0,95,0.00,,,0.17,Wunderground v.1.15,2013-06-10 17:13:00,
2013-06-10 13:14:00,62.4,60.9,29.76,NNW,346,0.0,3.0,95,0.00,,,0.17,Wunderground v.1.15,2013-06-10 17:14:00,
2013-06-10 13:16:00,62.0,60.8,29.76,NNW,344,0.0,3.0,96,0.00,,,0.17,Wunderground v.1.15,2013-06-10 17:16:00,
2013-06-10 13:17:00,62.1,61.2,29.76,NNW,342,0.0,3.0,97,0.00,,,0.17,Wunderground v.1.15,2013-06-10 17:17:00,
2013-06-10 13:18:00,62.3,61.4,29.76,NNW,342,0.0,3.0,97,0.00,,,0.17,Wunderground v.1.15,2013-06-10 17:18:00,
2013-06-10 13:19:00,62.6,61.7,29.76,NNW,342,1.0,3.0,97,0.00,,,0.17,Wunderground v.1.15,2013-06-10 17:19:00,
2013-06-10 13:20:00,63.1,62.5,29.76,NNW,340,1.0,2.0,98,0.00,,,0.17,Wunderground v.1.15,2013-06-10 17:20:00,
2013-06-10 13:21:00,63.1,62.2,29.76,NNW,340,0.0,2.0,97,0.00,,,0.17,Wunderground v.1.15,2013-06-10 17:21:00,
2013-06-10 13:22:00,63.0,61.8,29.76,SSW,213,0.0,2.0,96,0.00,,,0.17,Wunderground v.1.15,2013-06-10 17:22:00,
2013-06-10 13:23:00,63.0,61.8,29.76,SSW,213,1.0,2.0,96,0.00,,,0.17,Wunderground v.1.15,2013-06-10 17:23:00,
2013-06-10 13:24:00,63.1,61.9,29.76,SSW,213,0.0,2.0,96,0.00,,,0.17,Wunderground v.1.15,2013-06-10 17:24:00,
2013-06-10 13:25:00,63.2,62.0,29.76,WNW,292,0.0,2.0,96,0.00,,,0.17,Wunderground v.1.15,2013-06-10 17:25:00,
2013-06-10 13:27:00,63.4,62.2,29.76,WNW,289,1.0,2.0,96,0.00,,,0.17,Wunderground v.1.15,2013-06-10 17:27:00,
2013-06-10 13:28:00,63.5,62.3,29.76,NW,304,1.0,2.0,96,0.00,,,0.17,Wunderground v.1.15,2013-06-10 17:28:00,
2013-06-10 13:29:00,63.6,62.1,29.76,NW,313,0.0,3.0,95,0.00,,,0.17,Wunderground v.1.15,2013-06-10 17:29:00,
2013-06-10 13:31:00,63.8,62.3,29.76,SW,217,0.0,2.0,95,0.00,,,0.17,Wunderground v.1.15,2013-06-10 17:31:00,
2013-06-10 13:32:00,63.8,62.6,29.76,SW,221,0.0,3.0,96,0.00,,,0.17,Wunderground v.1.15,2013-06-10 17:32:00,
2013-06-10 13:33:00,64.0,62.8,29.76,SW,221,0.0,3.0,96,0.00,,,0.17,Wunderground v.1.15,2013-06-10 17:33:00,
2013-06-10 13:34:00,64.2,63.3,29.76,NNW,339,1.0,3.0,97,0.00,,,0.17,Wunderground v.1.15,2013-06-10 17:34:00,
2013-06-10 13:35:00,64.3,63.1,29.76,WNW,296,0.0,4.0,96,0.00,,,0.17,Wunderground v.1.15,2013-06-10 17:35:00,
2013-06-10 13:36:00,64.2,63.0,29.76,NW,313,2.0,4.0,96,0.00,,,0.17,Wunderground v.1.15,2013-06-10 17:36:00,
2013-06-10 13:38:00,64.2,63.0,29.76,NW,313,0.0,4.0,96,0.00,,,0.17,Wunderground v.1.15,2013-06-10 17:38:00,
2013-06-10 13:39:00,64.3,63.1,29.76,NW,313,0.0,4.0,96,0.00,,,0.17,Wunderground v.1.15,2013-06-10 17:39:00,
2013-06-10 13:40:00,64.3,62.8,29.76,SW,221,1.0,2.0,95,0.00,,,0.17,Wunderground v.1.15,2013-06-10 17:40:00,
2013-06-10 13:41:00,64.2,62.7,29.76,SW,221,2.0,2.0,95,0.00,,,0.17,Wunderground v.1.15,2013-06-10 17:41:00,
2013-06-10 13:44:00,64.1,62.6,29.76,SW,221,0.0,2.0,95,0.00,,,0.17,Wunderground v.1.15,2013-06-10 17:44:00,
2013-06-10 13:45:00,64.0,62.2,29.76,SW,221,0.0,2.0,94,0.00,,,0.17,Wunderground v.1.15,2013-06-10 17:45:00,
2013-06-10 13:46:00,64.0,62.5,29.76,WSW,253,1.0,2.0,95,0.00,,,0.17,Wunderground v.1.15,2013-06-10 17:46:00,
2013-06-10 13:47:00,63.9,62.4,29.76,WSW,254,0.0,2.0,95,0.00,,,0.17,Wunderground v.1.15,2013-06-10 17:47:00,
2013-06-10 13:50:00,63.8,62.0,29.76,WSW,244,3.0,3.0,94,0.00,,,0.17,Wunderground v.1.15,2013-06-10 17:50:00,
2013-06-10 13:51:00,63.6,62.1,29.76,WSW,255,1.0,3.0,95,0.00,,,0.17,Wunderground v.1.15,2013-06-10 17:51:00,
2013-06-10 13:52:00,63.3,61.8,29.76,WSW,256,0.0,3.0,95,0.00,,,0.17,Wunderground v.1.15,2013-06-10 17:52:00,
2013-06-10 13:55:00,63.0,61.5,29.76,SSW,196,0.0,3.0,95,0.00,,,0.17,Wunderground v.1.15,2013-06-10 17:55:00,
2013-06-10 13:56:00,63.0,61.8,29.76,SSW,210,0.0,3.0,96,0.00,,,0.17,Wunderground v.1.15,2013-06-10 17:56:00,
2013-06-10 13:57:00,63.0,61.8,29.76,SSW,213,0.0,3.0,96,0.00,,,0.17,Wunderground v.1.15,2013-06-10 17:57:00,
2013-06-10 14:00:00,63.1,61.9,29.76,North,9,3.0,3.0,96,0.00,,,0.17,Wunderground v.1.15,2013-06-10 18:00:00,
2013-06-10 14:03:00,63.2,62.3,29.76,North,9,1.0,3.0,97,0.00,,,0.17,Wunderground v.1.15,2013-06-10 18:03:00,
2013-06-10 14:05:00,62.9,61.1,29.76,North,9,0.0,3.0,94,0.00,,,0.17,Wunderground v.1.15,2013-06-10 18:05:00,
2013-06-10 14:06:00,62.7,61.2,29.76,North,9,0.0,3.0,95,0.00,,,0.17,Wunderground v.1.15,2013-06-10 18:06:00,
2013-06-10 14:08:00,62.5,61.0,29.76,NNW,338,0.0,3.0,95,0.00,,,0.17,Wunderground v.1.15,2013-06-10 18:08:00,
2013-06-10 14:10:00,62.5,61.3,29.76,NNW,338,1.0,2.0,96,0.00,,,0.17,Wunderground v.1.15,2013-06-10 18:10:00,
2013-06-10 14:11:00,62.5,61.3,29.76,SSW,203,0.0,2.0,96,0.00,,,0.17,Wunderground v.1.15,2013-06-10 18:11:00,
2013-06-10 14:13:00,62.7,61.2,29.76,NNW,333,1.0,2.0,95,0.00,,,0.17,Wunderground v.1.15,2013-06-10 18:13:00,
2013-06-10 14:15:00,63.2,62.0,29.76,NNW,333,1.0,3.0,96,0.00,,,0.17,Wunderground v.1.15,2013-06-10 18:15:00,
2013-06-10 14:16:00,63.2,62.0,29.76,NNW,333,1.0,3.0,96,0.00,,,0.17,Wunderground v.1.15,2013-06-10 18:16:00,
2013-06-10 14:18:00,64.0,63.1,29.76,NNW,333,2.0,3.0,97,0.00,,,0.17,Wunderground v.1.15,2013-06-10 18:18:00,
2013-06-10 14:19:00,64.0,62.5,29.76,NNW,333,0.0,3.0,95,0.00,,,0.17,Wunderground v.1.15,2013-06-10 18:19:00,
2013-06-10 14:20:00,64.1,62.6,29.76,NNW,332,1.0,2.0,95,0.00,,,0.17,Wunderground v.1.15,2013-06-10 18:20:00,
2013-06-10 14:21:00,64.2,62.7,29.76,NNW,332,0.0,2.0,95,0.00,,,0.17,Wunderground v.1.15,2013-06-10 18:21:00,
2013-06-10 14:22:00,64.2,62.4,29.76,West,276,2.0,3.0,94,0.00,,,0.17,Wunderground v.1.15,2013-06-10 18:22:00,
2013-06-10 14:23:00,64.3,62.8,29.76,NNW,336,2.0,3.0,95,0.00,,,0.17,Wunderground v.1.15,2013-06-10 18:23:00,
2013-06-10 14:25:00,64.0,61.6,29.76,WNW,302,5.0,5.0,92,0.00,,,0.17,Wunderground v.1.15,2013-06-10 18:25:00,
2013-06-10 14:26:00,63.6,61.5,29.76,NW,315,3.0,5.0,93,0.00,,,0.17,Wunderground v.1.15,2013-06-10 18:26:00,
2013-06-10 14:27:00,63.1,61.0,29.76,NW,321,3.0,5.0,93,0.00,,,0.17,Wunderground v.1.15,2013-06-10 18:27:00,
2013-06-10 14:28:00,62.9,61.1,29.76,NW,322,2.0,5.0,94,0.00,,,0.17,Wunderground v.1.15,2013-06-10 18:28:00,
2013-06-10 14:31:00,62.7,60.9,29.76,NW,316,3.0,3.0,94,0.00,,,0.17,Wunderground v.1.15,2013-06-10 18:31:00,
2013-06-10 14:33:00,62.6,61.1,29.76,NW,306,4.0,4.0,95,0.00,,,0.17,Wunderground v.1.15,2013-06-10 18:33:00,
2013-06-10 14:35:00,62.4,60.7,29.77,WNW,300,4.0,4.0,94,0.00,,,0.17,Wunderground v.1.15,2013-06-10 18:35:00,
2013-06-10 14:37:00,62.0,60.6,29.77,WNW,303,5.0,5.0,95,0.00,,,0.17,Wunderground v.1.15,2013-06-10 18:37:00,
2013-06-10 14:38:00,61.8,60.6,29.77,NW,308,4.0,5.0,96,0.00,,,0.17,Wunderground v.1.15,2013-06-10 18:38:00,
2013-06-10 14:40:00,61.8,60.6,29.77,WNW,301,3.0,3.0,96,0.00,,,0.17,Wunderground v.1.15,2013-06-10 18:40:00,
2013-06-10 14:42:00,61.8,60.6,29.77,NW,315,2.0,4.0,96,0.00,,,0.17,Wunderground v.1.15,2013-06-10 18:42:00,
2013-06-10 14:44:00,61.6,60.4,29.77,WNW,298,3.0,4.0,96,0.00,,,0.17,Wunderground v.1.15,2013-06-10 18:44:00,
2013-06-10 14:45:00,61.6,60.4,29.77,NW,306,0.0,4.0,96,0.00,,,0.17,Wunderground v.1.15,2013-06-10 18:45:00,
2013-06-10 14:47:00,61.7,60.8,29.77,NW,306,1.0,4.0,97,0.00,,,0.17,Wunderground v.1.15,2013-06-10 18:47:00,
2013-06-10 14:48:00,61.7,60.8,29.77,NW,306,1.0,4.0,97,0.00,,,0.17,Wunderground v.1.15,2013-06-10 18:48:00,
2013-06-10 14:49:00,61.6,60.4,29.77,NW,306,2.0,4.0,96,0.00,,,0.17,Wunderground v.1.15,2013-06-10 18:49:00,
2013-06-10 14:50:00,61.3,60.2,29.77,NW,306,1.0,2.0,96,0.00,,,0.17,Wunderground v.1.15,2013-06-10 18:50:00,
2013-06-10 14:52:00,61.2,60.1,29.77,NW,304,0.0,2.0,96,0.00,,,0.17,Wunderground v.1.15,2013-06-10 18:52:00,
2013-06-10 14:53:00,61.4,60.5,29.76,NW,304,0.0,3.0,97,0.00,,,0.17,Wunderground v.1.15,2013-06-10 18:53:00,
2013-06-10 14:54:00,61.5,60.9,29.77,NW,304,2.0,3.0,98,0.00,,,0.17,Wunderground v.1.15,2013-06-10 18:54:00,
2013-06-10 14:55:00,61.4,60.8,29.77,NW,304,2.0,3.0,98,0.00,,,0.17,Wunderground v.1.15,2013-06-10 18:55:00,
2013-06-10 14:58:00,61.1,60.0,29.77,WNW,298,4.0,5.0,96,0.00,,,0.17,Wunderground v.1.15,2013-06-10 18:58:00,
2013-06-10 14:59:00,60.9,59.8,29.77,NW,317,4.0,6.0,96,0.00,,,0.17,Wunderground v.1.15,2013-06-10 18:59:00,
2013-06-10 15:00:00,60.8,59.9,29.77,WNW,291,2.0,4.0,97,0.00,,,0.17,Wunderground v.1.15,2013-06-10 19:00:00,
2013-06-10 15:01:00,60.8,59.9,29.77,WNW,296,3.0,4.0,97,0.00,,,0.17,Wunderground v.1.15,2013-06-10 19:01:00,
2013-06-10 15:03:00,60.8,59.9,29.77,WNW,299,3.0,4.0,97,0.00,,,0.17,Wunderground v.1.15,2013-06-10 19:03:00,
2013-06-10 15:04:00,60.9,60.3,29.77,WNW,302,3.0,4.0,98,0.00,,,0.17,Wunderground v.1.15,2013-06-10 19:04:00,
2013-06-10 15:05:00,60.9,60.3,29.77,WNW,302,2.0,4.0,98,0.00,,,0.17,Wunderground v.1.15,2013-06-10 19:05:00,
2013-06-10 15:06:00,60.9,60.3,29.77,WNW,300,3.0,4.0,98,0.00,,,0.17,Wunderground v.1.15,2013-06-10 19:06:00,
2013-06-10 15:09:00,60.8,60.2,29.77,WNW,295,2.0,4.0,98,0.00,,,0.17,Wunderground v.1.15,2013-06-10 19:09:00,
2013-06-10 15:10:00,60.9,60.3,29.77,WNW,294,2.0,3.0,98,0.00,,,0.17,Wunderground v.1.15,2013-06-10 19:10:00,
2013-06-10 15:11:00,60.9,60.3,29.77,WNW,298,4.0,4.0,98,0.00,,,0.17,Wunderground v.1.15,2013-06-10 19:11:00,
2013-06-10 15:12:00,60.9,60.3,29.77,West,281,5.0,5.0,98,0.00,,,0.17,Wunderground v.1.15,2013-06-10 19:12:00,
2013-06-10 15:14:00,60.8,59.9,29.77,NW,306,4.0,6.0,97,0.00,,,0.17,Wunderground v.1.15,2013-06-10 19:14:00,
2013-06-10 15:15:00,60.8,59.9,29.77,WNW,298,2.0,6.0,97,0.00,,,0.17,Wunderground v.1.15,2013-06-10 19:15:00,
2013-06-10 15:16:00,60.7,59.8,29.77,WNW,301,2.0,6.0,97,0.00,,,0.17,Wunderground v.1.15,2013-06-10 19:16:00,
2013-06-10 15:18:00,60.7,60.1,29.77,NW,306,3.0,6.0,98,0.00,,,0.17,Wunderground v.1.15,2013-06-10 19:18:00,
2013-06-10 15:20:00,60.8,60.2,29.77,WNW,289,3.0,6.0,98,0.00,,,0.17,Wunderground v.1.15,2013-06-10 19:20:00,
2013-06-10 15:21:00,60.7,59.8,29.77,WNW,290,4.0,6.0,97,0.00,,,0.17,Wunderground v.1.15,2013-06-10 19:21:00,
2013-06-10 15:23:00,60.7,60.1,29.77,NW,323,4.0,6.0,98,0.00,,,0.17,Wunderground v.1.15,2013-06-10 19:23:00,
2013-06-10 15:25:00,60.8,60.2,29.77,NW,311,4.0,6.0,98,0.00,,,0.17,Wunderground v.1.15,2013-06-10 19:25:00,
2013-06-10 15:26:00,60.8,60.2,29.77,NW,311,4.0,6.0,98,0.00,,,0.17,Wunderground v.1.15,2013-06-10 19:26:00,
2013-06-10 15:27:00,60.9,60.3,29.77,NW,321,4.0,6.0,98,0.00,,,0.17,Wunderground v.1.15,2013-06-10 19:27:00,
2013-06-10 15:28:00,60.9,60.3,29.77,NW,318,4.0,6.0,98,0.00,,,0.17,Wunderground v.1.15,2013-06-10 19:28:00,
2013-06-10 15:30:00,60.7,59.8,29.77,WNW,302,3.0,4.0,97,0.00,,,0.17,Wunderground v.1.15,2013-06-10 19:30:00,
2013-06-10 15:32:00,60.6,59.7,29.77,WNW,299,6.0,6.0,97,0.00,,,0.17,Wunderground v.1.15,2013-06-10 19:32:00,
2013-06-10 15:33:00,60.4,59.5,29.77,NW,309,5.0,6.0,97,0.00,,,0.17,Wunderground v.1.15,2013-06-10 19:33:00,
2013-06-10 15:35:00,60.4,59.8,29.77,WNW,292,4.0,6.0,98,0.00,,,0.17,Wunderground v.1.15,2013-06-10 19:35:00,
2013-06-10 15:37:00,60.4,59.8,29.77,WNW,299,3.0,6.0,98,0.00,,,0.17,Wunderground v.1.15,2013-06-10 19:37:00,
2013-06-10 15:39:00,60.2,59.6,29.77,WNW,291,3.0,6.0,98,0.00,,,0.17,Wunderground v.1.15,2013-06-10 19:39:00,
2013-06-10 15:41:00,60.1,59.5,29.77,WNW,291,3.0,4.0,98,0.00,,,0.17,Wunderground v.1.15,2013-06-10 19:41:00,
2013-06-10 15:42:00,60.0,59.4,29.77,WNW,291,4.0,4.0,98,0.00,,,0.17,Wunderground v.1.15,2013-06-10 19:42:00,
2013-06-10 15:44:00,59.9,59.3,29.77,WNW,291,4.0,4.0,98,0.00,,,0.17,Wunderground v.1.15,2013-06-10 19:44:00,
2013-06-10 15:46:00,60.0,59.4,29.77,WNW,290,3.0,5.0,98,0.00,,,0.17,Wunderground v.1.15,2013-06-10 19:46:00,
2013-06-10 15:47:00,60.0,59.4,29.77,WNW,296,4.0,5.0,98,0.00,,,0.17,Wunderground v.1.15,2013-06-10 19:47:00,
2013-06-10 15:48:00,60.1,59.5,29.77,WNW,296,4.0,5.0,98,0.00,,,0.17,Wunderground v.1.15,2013-06-10 19:48:00,
2013-06-10 15:49:00,60.0,59.4,29.77,WNW,293,5.0,5.0,98,0.00,,,0.17,Wunderground v.1.15,2013-06-10 19:49:00,
2013-06-10 15:51:00,59.8,59.2,29.77,WNW,291,3.0,6.0,98,0.00,,,0.17,Wunderground v.1.15,2013-06-10 19:51:00,
2013-06-10 15:53:00,59.8,59.2,29.77,WNW,288,4.0,6.0,98,0.00,,,0.17,Wunderground v.1.15,2013-06-10 19:53:00,
2013-06-10 15:54:00,59.8,59.2,29.77,WNW,301,4.0,6.0,98,0.00,,,0.17,Wunderground v.1.15,2013-06-10 19:54:00,
2013-06-10 15:57:00,59.9,59.3,29.77,WNW,286,2.0,6.0,98,0.00,,,0.17,Wunderground v.1.15,2013-06-10 19:57:00,
2013-06-10 15:58:00,59.9,59.3,29.77,WNW,300,1.0,6.0,98,0.00,,,0.17,Wunderground v.1.15,2013-06-10 19:58:00,
2013-06-10 15:59:00,60.0,59.7,29.77,NW,325,2.0,6.0,99,0.00,,,0.17,Wunderground v.1.15,2013-06-10 19:59:00,
2013-06-10 16:03:00,60.4,60.1,29.77,NNW,331,3.0,5.0,99,0.00,,,0.17,Wunderground v.1.15,2013-06-10 20:03:00,
2013-06-10 16:04:00,60.3,60.0,29.77,NW,307,4.0,5.0,99,0.00,,,0.17,Wunderground v.1.15,2013-06-10 20:04:00,
2013-06-10 16:05:00,60.2,59.9,29.77,NW,306,2.0,5.0,99,0.00,,,0.17,Wunderground v.1.15,2013-06-10 20:05:00,
2013-06-10 16:08:00,60.0,59.4,29.77,WNW,286,4.0,5.0,98,0.00,,,0.17,Wunderground v.1.15,2013-06-10 20:08:00,
2013-06-10 16:09:00,59.9,59.3,29.77,West,275,3.0,5.0,98,0.00,,,0.17,Wunderground v.1.15,2013-06-10 20:09:00,
2013-06-10 16:10:00,59.8,59.2,29.77,West,275,4.0,4.0,98,0.00,,,0.17,Wunderground v.1.15,2013-06-10 20:10:00,
2013-06-10 16:13:00,59.7,59.1,29.77,WNW,283,4.0,4.0,98,0.00,,,0.17,Wunderground v.1.15,2013-06-10 20:13:00,
2013-06-10 16:14:00,59.6,59.0,29.77,WNW,284,4.0,5.0,98,0.00,,,0.17,Wunderground v.1.15,2013-06-10 20:14:00,
2013-06-10 16:15:00,59.6,59.0,29.77,WNW,284,3.0,5.0,98,0.00,,,0.17,Wunderground v.1.15,2013-06-10 20:15:00,
2013-06-10 16:18:00,59.6,59.0,29.78,WNW,290,4.0,5.0,98,0.00,,,0.17,Wunderground v.1.15,2013-06-10 20:18:00,
2013-06-10 16:19:00,59.6,59.3,29.78,WNW,290,3.0,5.0,99,0.00,,,0.17,Wunderground v.1.15,2013-06-10 20:19:00,
2013-06-10 16:20:00,59.8,59.5,29.78,WNW,290,3.0,4.0,99,0.00,,,0.17,Wunderground v.1.15,2013-06-10 20:20:00,
2013-06-10 16:23:00,59.8,59.5,29.78,WNW,290,2.0,4.0,99,0.00,,,0.17,Wunderground v.1.15,2013-06-10 20:23:00,
2013-06-10 16:24:00,59.8,59.5,29.78,WNW,290,3.0,4.0,99,0.00,,,0.17,Wunderground v.1.15,2013-06-10 20:24:00,
2013-06-10 16:25:00,59.7,59.4,29.78,WNW,290,4.0,5.0,99,0.00,,,0.17,Wunderground v.1.15,2013-06-10 20:25:00,
2013-06-10 16:29:00,59.5,59.2,29.78,WNW,288,5.0,6.0,99,0.00,,,0.17,Wunderground v.1.15,2013-06-10 20:29:00,
2013-06-10 16:30:00,59.4,59.1,29.78,WNW,288,5.0,5.0,99,0.00,,,0.17,Wunderground v.1.15,2013-06-10 20:30:00,
2013-06-10 16:31:00,59.4,59.1,29.78,WNW,288,5.0,5.0,99,0.00,,,0.17,Wunderground v.1.15,2013-06-10 20:31:00,
2013-06-10 16:34:00,59.5,59.2,29.78,WNW,288,5.0,6.0,99,0.00,,,0.17,Wunderground v.1.15,2013-06-10 20:34:00,
2013-06-10 16:35:00,59.5,59.2,29.78,WNW,296,4.0,7.0,99,0.00,,,0.17,Wunderground v.1.15,2013-06-10 20:35:00,
2013-06-10 16:36:00,59.5,59.2,29.78,WNW,296,4.0,7.0,99,0.00,,,0.17,Wunderground v.1.15,2013-06-10 20:36:00,
2013-06-10 16:37:00,59.6,59.3,29.78,WNW,296,5.0,7.0,99,0.00,,,0.17,Wunderground v.1.15,2013-06-10 20:37:00,
2013-06-10 16:39:00,59.5,59.2,29.78,WNW,296,5.0,7.0,99,0.00,,,0.17,Wunderground v.1.15,2013-06-10 20:39:00,
2013-06-10 16:40:00,59.4,59.1,29.78,WNW,296,4.0,5.0,99,0.00,,,0.17,Wunderground v.1.15,2013-06-10 20:40:00,
2013-06-10 16:41:00,59.3,59.0,29.78,WNW,296,4.0,5.0,99,0.00,,,0.17,Wunderground v.1.15,2013-06-10 20:41:00,
2013-06-10 16:43:00,59.4,59.1,29.77,WNW,296,3.0,5.0,99,0.00,,,0.17,Wunderground v.1.15,2013-06-10 20:43:00,
2013-06-10 16:44:00,59.4,59.1,29.77,WNW,296,3.0,5.0,99,0.00,,,0.17,Wunderground v.1.15,2013-06-10 20:44:00,
2013-06-10 16:45:00,59.3,59.0,29.77,WNW,296,2.0,5.0,99,0.00,,,0.17,Wunderground v.1.15,2013-06-10 20:45:00,
2013-06-10 16:46:00,59.2,58.9,29.77,WNW,296,3.0,5.0,99,0.00,,,0.17,Wunderground v.1.15,2013-06-10 20:46:00,
2013-06-10 16:48:00,59.1,58.8,29.77,WNW,296,3.0,5.0,99,0.00,,,0.17,Wunderground v.1.15,2013-06-10 20:48:00,
2013-06-10 16:50:00,59.0,58.7,29.77,WNW,296,3.0,3.0,99,0.00,,,0.17,Wunderground v.1.15,2013-06-10 20:50:00,
2013-06-10 16:51:00,59.0,58.7,29.77,WNW,296,0.0,3.0,99,0.00,,,0.17,Wunderground v.1.15,2013-06-10 20:51:00,
2013-06-10 16:53:00,59.3,59.0,29.78,WNW,296,1.0,3.0,99,0.00,,,0.17,Wunderground v.1.15,2013-06-10 20:53:00,
2013-06-10 17:18:00,59.5,59.2,29.78,WNW,296,2.0,4.0,99,0.00,,,0.17,Wunderground v.1.15,2013-06-10 21:18:00,
2013-06-10 17:19:00,59.3,59.0,29.78,WNW,296,3.0,4.0,99,0.00,,,0.17,Wunderground v.1.15,2013-06-10 21:19:00,
2013-06-10 17:23:00,59.2,58.9,29.78,WNW,296,3.0,4.0,99,0.00,,,0.17,Wunderground v.1.15,2013-06-10 21:23:00,
2013-06-10 17:25:00,59.3,59.0,29.78,WNW,296,4.0,5.0,99,0.00,,,0.17,Wunderground v.1.15,2013-06-10 21:25:00,
2013-06-10 17:28:00,59.2,58.9,29.79,West,281,4.0,6.0,99,0.00,,,0.17,Wunderground v.1.15,2013-06-10 21:28:00,
2013-06-10 17:29:00,59.2,58.9,29.79,WNW,288,5.0,6.0,99,0.00,,,0.17,Wunderground v.1.15,2013-06-10 21:29:00,
2013-06-10 17:30:00,59.2,58.9,29.79,WNW,288,4.0,4.0,99,0.00,,,0.17,Wunderground v.1.15,2013-06-10 21:30:00,
2013-06-10 17:33:00,59.3,59.0,29.79,WNW,288,3.0,5.0,99,0.00,,,0.17,Wunderground v.1.15,2013-06-10 21:33:00,
2013-06-10 17:34:00,59.3,59.0,29.79,WNW,288,3.0,5.0,99,0.00,,,0.17,Wunderground v.1.15,2013-06-10 21:34:00,
2013-06-10 17:35:00,59.3,59.0,29.79,WNW,288,1.0,5.0,99,0.00,,,0.17,Wunderground v.1.15,2013-06-10 21:35:00,
2013-06-10 17:38:00,59.6,59.3,29.79,WNW,288,0.0,5.0,99,0.00,,,0.17,Wunderground v.1.15,2013-06-10 21:38:00,
2013-06-10 17:39:00,59.6,59.3,29.79,WNW,288,0.0,5.0,99,0.00,,,0.17,Wunderground v.1.15,2013-06-10 21:39:00,
2013-06-10 17:40:00,59.7,59.4,29.79,WNW,288,1.0,3.0,99,0.00,,,0.17,Wunderground v.1.15,2013-06-10 21:40:00,
2013-06-10 17:43:00,59.8,59.5,29.79,WNW,288,0.0,3.0,99,0.00,,,0.17,Wunderground v.1.15,2013-06-10 21:43:00,
2013-06-10 17:44:00,59.7,59.4,29.79,WNW,288,0.0,3.0,99,0.00,,,0.17,Wunderground v.1.15,2013-06-10 21:44:00,
2013-06-10 17:45:00,59.7,59.4,29.79,WNW,288,1.0,3.0,99,0.00,,,0.17,Wunderground v.1.15,2013-06-10 21:45:00,
2013-06-10 17:49:00,59.9,59.6,29.78,WNW,288,1.0,3.0,99,0.00,,,0.17,Wunderground v.1.15,2013-06-10 21:49:00,
2013-06-10 17:50:00,59.8,59.5,29.79,WNW,288,3.0,3.0,99,0.00,,,0.17,Wunderground v.1.15,2013-06-10 21:50:00,
2013-06-10 17:51:00,59.7,59.4,29.79,WNW,288,2.0,3.0,99,0.00,,,0.17,Wunderground v.1.15,2013-06-10 21:51:00,
2013-06-10 17:54:00,59.4,59.1,29.79,WNW,288,3.0,3.0,99,0.00,,,0.17,Wunderground v.1.15,2013-06-10 21:54:00,
2013-06-10 17:55:00,59.4,59.1,29.79,WNW,288,3.0,3.0,99,0.00,,,0.17,Wunderground v.1.15,2013-06-10 21:55:00,
2013-06-10 17:57:00,59.4,59.1,29.79,WNW,288,4.0,5.0,99,0.00,,,0.17,Wunderground v.1.15,2013-06-10 21:57:00,
2013-06-10 17:59:00,59.2,58.9,29.79,WNW,288,4.0,5.0,99,0.00,,,0.17,Wunderground v.1.15,2013-06-10 21:59:00,
2013-06-10 18:00:00,59.1,58.8,29.79,WNW,288,3.0,4.0,99,0.00,,,0.17,Wunderground v.1.15,2013-06-10 22:00:00,
2013-06-10 18:01:00,59.1,58.8,29.79,WNW,288,4.0,4.0,99,0.00,,,0.17,Wunderground v.1.15,2013-06-10 22:01:00,
2013-06-10 18:02:00,59.1,58.8,29.79,WNW,288,3.0,4.0,99,0.00,,,0.17,Wunderground v.1.15,2013-06-10 22:02:00,
2013-06-10 18:04:00,58.9,58.6,29.79,WNW,288,1.0,4.0,99,0.00,,,0.17,Wunderground v.1.15,2013-06-10 22:04:00,
2013-06-10 18:06:00,59.1,58.8,29.79,WNW,288,3.0,5.0,99,0.00,,,0.17,Wunderground v.1.15,2013-06-10 22:06:00,
2013-06-10 18:08:00,58.9,58.6,29.79,WNW,288,2.0,5.0,99,0.00,,,0.17,Wunderground v.1.15,2013-06-10 22:08:00,
2013-06-10 18:10:00,58.9,58.6,29.79,WNW,288,3.0,3.0,99,0.00,,,0.17,Wunderground v.1.15,2013-06-10 22:10:00,
2013-06-10 18:11:00,58.9,58.6,29.79,WNW,288,3.0,3.0,99,0.00,,,0.17,Wunderground v.1.15,2013-06-10 22:11:00,
2013-06-10 18:12:00,58.9,58.6,29.79,WNW,288,1.0,3.0,99,0.00,,,0.17,Wunderground v.1.15,2013-06-10 22:12:00,
2013-06-10 18:13:00,58.9,58.6,29.79,WNW,288,2.0,3.0,99,0.00,,,0.17,Wunderground v.1.15,2013-06-10 22:13:00,
2013-06-10 18:15:00,58.9,58.6,29.79,WNW,288,2.0,3.0,99,0.00,,,0.17,Wunderground v.1.15,2013-06-10 22:15:00,
2013-06-10 18:16:00,59.0,58.7,29.79,WNW,288,2.0,3.0,99,0.00,,,0.17,Wunderground v.1.15,2013-06-10 22:16:00,
2013-06-10 18:17:00,59.0,58.7,29.79,WNW,288,1.0,3.0,99,0.00,,,0.17,Wunderground v.1.15,2013-06-10 22:17:00,
2013-06-10 18:19:00,58.9,58.6,29.79,WNW,288,2.0,3.0,99,0.00,,,0.17,Wunderground v.1.15,2013-06-10 22:19:00,
2013-06-10 18:20:00,58.8,58.5,29.79,WNW,288,2.0,2.0,99,0.00,,,0.17,Wunderground v.1.15,2013-06-10 22:20:00,
2013-06-10 18:21:00,58.7,58.4,29.79,WNW,288,2.0,2.0,99,0.00,,,0.17,Wunderground v.1.15,2013-06-10 22:21:00,
2013-06-10 18:22:00,58.6,58.3,29.79,WNW,288,2.0,2.0,99,0.00,,,0.17,Wunderground v.1.15,2013-06-10 22:22:00,
2013-06-10 18:24:00,58.6,58.3,29.79,WNW,288,2.0,2.0,99,0.00,,,0.17,Wunderground v.1.15,2013-06-10 22:24:00,
2013-06-10 18:26:00,58.6,58.3,29.79,WNW,288,2.0,2.0,99,0.00,,,0.17,Wunderground v.1.15,2013-06-10 22:26:00,
2013-06-10 18:28:00,58.6,58.3,29.79,WNW,288,1.0,2.0,99,0.00,,,0.17,Wunderground v.1.15,2013-06-10 22:28:00,
2013-06-10 18:29:00,58.5,58.2,29.79,WNW,288,1.0,2.0,99,0.00,,,0.17,Wunderground v.1.15,2013-06-10 22:29:00,
2013-06-10 18:31:00,58.5,58.2,29.79,WNW,288,1.0,2.0,99,0.00,,,0.17,Wunderground v.1.15,2013-06-10 22:31:00,
2013-06-10 18:33:00,58.6,58.3,29.79,WNW,288,1.0,3.0,99,0.00,,,0.17,Wunderground v.1.15,2013-06-10 22:33:00,
2013-06-10 18:35:00,58.5,58.2,29.79,WNW,288,1.0,3.0,99,0.00,,,0.17,Wunderground v.1.15,2013-06-10 22:35:00,
2013-06-10 18:37:00,58.6,58.3,29.79,WNW,288,1.0,3.0,99,0.00,,,0.17,Wunderground v.1.15,2013-06-10 22:37:00,
2013-06-10 18:38:00,58.5,58.2,29.79,WNW,288,0.0,3.0,99,0.00,,,0.17,Wunderground v.1.15,2013-06-10 22:38:00,
2013-06-10 18:40:00,58.8,58.5,29.79,WNW,288,1.0,1.0,99,0.00,,,0.17,Wunderground v.1.15,2013-06-10 22:40:00,
2013-06-10 18:42:00,58.7,58.4,29.79,WNW,288,2.0,3.0,99,0.00,,,0.17,Wunderground v.1.15,2013-06-10 22:42:00,
2013-06-10 18:43:00,58.7,58.4,29.79,WNW,288,2.0,3.0,99,0.00,,,0.17,Wunderground v.1.15,2013-06-10 22:43:00,
2013-06-10 18:44:00,58.6,58.3,29.79,WNW,288,2.0,3.0,99,0.00,,,0.17,Wunderground v.1.15,2013-06-10 22:44:00,
2013-06-10 18:45:00,58.6,58.3,29.79,WNW,288,2.0,3.0,99,0.00,,,0.17,Wunderground v.1.15,2013-06-10 22:45:00,
2013-06-10 18:47:00,58.5,58.2,29.79,WNW,288,2.0,3.0,99,0.00,,,0.17,Wunderground v.1.15,2013-06-10 22:47:00,
2013-06-10 18:48:00,58.4,58.1,29.79,WNW,288,2.0,3.0,99,0.00,,,0.17,Wunderground v.1.15,2013-06-10 22:48:00,
2013-06-10 18:49:00,58.4,58.1,29.79,WNW,288,3.0,3.0,99,0.00,,,0.17,Wunderground v.1.15,2013-06-10 22:49:00,
2013-06-10 18:50:00,58.5,58.2,29.79,WNW,288,4.0,4.0,99,0.00,,,0.17,Wunderground v.1.15,2013-06-10 22:50:00,
2013-06-10 18:53:00,58.3,58.0,29.79,WNW,288,3.0,4.0,99,0.00,,,0.17,Wunderground v.1.15,2013-06-10 22:53:00,
2013-06-10 18:54:00,58.3,58.0,29.79,WNW,288,2.0,4.0,99,0.00,,,0.17,Wunderground v.1.15,2013-06-10 22:54:00,
2013-06-10 18:55:00,58.3,58.0,29.79,WNW,288,2.0,4.0,99,0.00,,,0.17,Wunderground v.1.15,2013-06-10 22:55:00,
2013-06-10 18:58:00,58.5,58.2,29.80,WNW,288,1.0,4.0,99,0.00,,,0.17,Wunderground v.1.15,2013-06-10 22:58:00,
2013-06-10 18:59:00,58.5,58.2,29.80,WNW,288,2.0,4.0,99,0.00,,,0.17,Wunderground v.1.15,2013-06-10 22:59:00,
2013-06-10 19:00:00,58.5,58.2,29.80,WNW,288,3.0,3.0,99,0.00,,,0.17,Wunderground v.1.15,2013-06-10 23:00:00,
2013-06-10 19:03:00,58.6,58.3,29.80,WNW,288,2.0,4.0,99,0.00,,,0.17,Wunderground v.1.15,2013-06-10 23:03:00,
2013-06-10 19:05:00,58.5,58.2,29.80,WNW,288,3.0,4.0,99,0.00,,,0.17,Wunderground v.1.15,2013-06-10 23:05:00,
2013-06-10 19:06:00,58.4,58.1,29.80,WNW,288,2.0,4.0,99,0.00,,,0.17,Wunderground v.1.15,2013-06-10 23:06:00,
2013-06-10 19:09:00,58.4,58.1,29.80,WNW,288,2.0,4.0,99,0.00,,,0.17,Wunderground v.1.15,2013-06-10 23:09:00,
2013-06-10 19:11:00,58.5,58.2,29.80,WNW,288,2.0,3.0,99,0.00,,,0.17,Wunderground v.1.15,2013-06-10 23:11:00,
2013-06-10 19:12:00,58.5,58.2,29.80,WNW,288,2.0,3.0,99,0.00,,,0.17,Wunderground v.1.15,2013-06-10 23:12:00,
2013-06-10 19:14:00,58.7,58.4,29.80,WNW,288,1.0,3.0,99,0.00,,,0.17,Wunderground v.1.15,2013-06-10 23:14:00,
2013-06-10 19:16:00,58.6,58.3,29.80,WNW,288,2.0,3.0,99,0.00,,,0.17,Wunderground v.1.15,2013-06-10 23:16:00,
2013-06-10 19:17:00,58.6,58.3,29.80,WNW,288,0.0,3.0,99,0.00,,,0.17,Wunderground v.1.15,2013-06-10 23:17:00,
2013-06-10 19:18:00,58.7,58.4,29.80,WNW,288,2.0,3.0,99,0.00,,,0.17,Wunderground v.1.15,2013-06-10 23:18:00,
2013-06-10 19:19:00,58.7,58.4,29.80,WNW,288,0.0,3.0,99,0.00,,,0.17,Wunderground v.1.15,2013-06-10 23:19:00,
2013-06-10 19:21:00,58.8,58.5,29.80,WNW,288,1.0,2.0,99,0.00,,,0.17,Wunderground v.1.15,2013-06-10 23:21:00,
2013-06-10 19:22:00,58.7,58.4,29.80,WNW,288,2.0,2.0,99,0.00,,,0.17,Wunderground v.1.15,2013-06-10 23:22:00,
2013-06-10 19:24:00,58.7,58.4,29.80,WNW,288,1.0,2.0,99,0.00,,,0.17,Wunderground v.1.15,2013-06-10 23:24:00,
2013-06-10 19:26:00,59.1,58.8,29.80,WNW,288,1.0,2.0,99,0.00,,,0.17,Wunderground v.1.15,2013-06-10 23:26:00,
2013-06-10 19:27:00,59.1,58.8,29.80,WNW,288,1.0,2.0,99,0.00,,,0.17,Wunderground v.1.15,2013-06-10 23:27:00,
2013-06-10 19:29:00,59.3,59.0,29.80,WNW,288,0.0,2.0,99,0.00,,,0.17,Wunderground v.1.15,2013-06-10 23:29:00,
2013-06-10 19:31:00,59.4,59.1,29.80,WNW,288,1.0,2.0,99,0.00,,,0.17,Wunderground v.1.15,2013-06-10 23:31:00,
2013-06-10 19:32:00,59.4,59.1,29.80,WNW,288,0.0,2.0,99,0.00,,,0.17,Wunderground v.1.15,2013-06-10 23:32:00,
2013-06-10 19:33:00,59.3,59.0,29.80,WNW,288,1.0,2.0,99,0.00,,,0.17,Wunderground v.1.15,2013-06-10 23:33:00,
2013-06-10 19:34:00,59.2,58.9,29.80,WNW,288,0.0,2.0,99,0.00,,,0.17,Wunderground v.1.15,2013-06-10 23:34:00,
2013-06-10 19:37:00,59.2,58.9,29.80,WNW,288,0.0,2.0,99,0.00,,,0.17,Wunderground v.1.15,2013-06-10 23:37:00,
2013-06-10 19:38:00,59.1,58.8,29.80,WNW,288,0.0,2.0,99,0.00,,,0.17,Wunderground v.1.15,2013-06-10 23:38:00,
2013-06-10 19:39:00,59.0,58.7,29.80,WNW,288,1.0,1.0,99,0.00,,,0.17,Wunderground v.1.15,2013-06-10 23:39:00,
2013-06-10 19:40:00,59.0,58.7,29.80,WNW,288,0.0,1.0,99,0.00,,,0.17,Wunderground v.1.15,2013-06-10 23:40:00,
2013-06-10 19:42:00,59.3,59.0,29.80,WNW,288,1.0,1.0,99,0.00,,,0.17,Wunderground v.1.15,2013-06-10 23:42:00,
2013-06-10 19:43:00,59.3,59.0,29.80,WNW,288,1.0,1.0,99,0.00,,,0.17,Wunderground v.1.15,2013-06-10 23:43:00,
2013-06-10 19:45:00,59.3,59.0,29.80,WNW,288,1.0,2.0,99,0.00,,,0.17,Wunderground v.1.15,2013-06-10 23:45:00,
2013-06-10 19:47:00,59.3,59.0,29.81,WNW,288,1.0,2.0,99,0.00,,,0.17,Wunderground v.1.15,2013-06-10 23:47:00,
2013-06-10 19:48:00,59.3,59.0,29.81,WNW,288,1.0,2.0,99,0.00,,,0.17,Wunderground v.1.15,2013-06-10 23:48:00,
2013-06-10 19:50:00,59.1,58.8,29.81,WNW,288,1.0,1.0,99,0.00,,,0.17,Wunderground v.1.15,2013-06-10 23:50:00,
2013-06-10 19:52:00,59.0,58.7,29.81,WNW,288,2.0,2.0,99,0.00,,,0.17,Wunderground v.1.15,2013-06-10 23:52:00,
2013-06-10 19:54:00,58.9,58.6,29.81,WNW,288,1.0,2.0,99,0.00,,,0.17,Wunderground v.1.15,2013-06-10 23:54:00,
2013-06-10 19:55:00,58.9,58.6,29.81,WNW,288,1.0,2.0,99,0.00,,,0.17,Wunderground v.1.15,2013-06-10 23:55:00,
2013-06-10 19:57:00,58.8,58.5,29.81,WNW,288,1.0,2.0,99,0.00,,,0.17,Wunderground v.1.15,2013-06-10 23:57:00,
2013-06-10 19:58:00,58.7,58.4,29.81,WNW,288,0.0,2.0,99,0.00,,,0.17,Wunderground v.1.15,2013-06-10 23:58:00,
2013-06-10 19:59:00,58.7,58.4,29.81,WNW,288,1.0,2.0,99,0.00,,,0.17,Wunderground v.1.15,2013-06-10 23:59:00,
2013-06-10 20:00:00,58.7,58.4,29.81,WNW,288,0.0,1.0,99,0.00,,,0.17,Wunderground v.1.15,2013-06-11 00:00:00,
2013-06-10 20:02:00,58.7,58.4,29.81,WNW,288,2.0,2.0,99,0.00,,,0.17,Wunderground v.1.15,2013-06-11 00:02:00,
2013-06-10 20:03:00,58.7,58.4,29.82,WNW,288,1.0,2.0,99,0.00,,,0.17,Wunderground v.1.15,2013-06-11 00:03:00,
2013-06-10 20:04:00,58.7,58.4,29.81,WNW,288,1.0,2.0,99,0.00,,,0.17,Wunderground v.1.15,2013-06-11 00:04:00,
2013-06-10 20:05:00,58.7,58.4,29.81,WNW,288,1.0,2.0,99,0.00,,,0.17,Wunderground v.1.15,2013-06-11 00:05:00,
2013-06-10 20:07:00,58.8,58.5,29.81,WNW,288,1.0,2.0,99,0.00,,,0.17,Wunderground v.1.15,2013-06-11 00:07:00,
2013-06-10 20:09:00,58.8,58.5,29.82,WNW,288,2.0,2.0,99,0.00,,,0.17,Wunderground v.1.15,2013-06-11 00:09:00,
2013-06-10 20:10:00,58.7,58.4,29.82,WNW,288,2.0,2.0,99,0.00,,,0.17,Wunderground v.1.15,2013-06-11 00:10:00,
2013-06-10 20:11:00,58.7,58.4,29.82,WNW,288,1.0,2.0,99,0.00,,,0.17,Wunderground v.1.15,2013-06-11 00:11:00,
2013-06-10 20:12:00,58.7,58.4,29.81,WNW,288,1.0,2.0,99,0.00,,,0.17,Wunderground v.1.15,2013-06-11 00:12:00,
2013-06-10 20:15:00,58.7,58.4,29.82,WNW,288,2.0,3.0,99,0.00,,,0.17,Wunderground v.1.15,2013-06-11 00:15:00,
2013-06-10 20:16:00,58.6,58.3,29.81,WNW,288,3.0,3.0,99,0.00,,,0.17,Wunderground v.1.15,2013-06-11 00:16:00,
2013-06-10 20:18:00,58.6,58.3,29.81,WNW,288,3.0,4.0,99,0.00,,,0.17,Wunderground v.1.15,2013-06-11 00:18:00,
2013-06-10 20:20:00,58.6,58.3,29.81,WNW,303,2.0,3.0,99,0.00,,,0.17,Wunderground v.1.15,2013-06-11 00:20:00,
2013-06-10 20:21:00,58.6,58.3,29.81,WNW,303,1.0,3.0,99,0.00,,,0.17,Wunderground v.1.15,2013-06-11 00:21:00,
2013-06-10 20:23:00,58.6,58.3,29.81,WNW,303,3.0,4.0,99,0.00,,,0.17,Wunderground v.1.15,2013-06-11 00:23:00,
2013-06-10 20:25:00,58.5,58.2,29.81,WNW,303,3.0,4.0,99,0.00,,,0.17,Wunderground v.1.15,2013-06-11 00:25:00,
2013-06-10 20:26:00,58.5,58.2,29.81,WNW,303,3.0,4.0,99,0.00,,,0.17,Wunderground v.1.15,2013-06-11 00:26:00,
2013-06-10 20:28:00,58.4,58.1,29.81,WNW,303,3.0,4.0,99,0.00,,,0.17,Wunderground v.1.15,2013-06-11 00:28:00,
2013-06-10 20:29:00,58.4,58.1,29.81,WNW,303,4.0,4.0,99,0.00,,,0.17,Wunderground v.1.15,2013-06-11 00:29:00,
2013-06-10 20:30:00,58.4,58.1,29.81,WNW,303,4.0,4.0,99,0.00,,,0.17,Wunderground v.1.15,2013-06-11 00:30:00,
2013-06-10 20:32:00,58.4,58.1,29.82,WNW,303,2.0,4.0,99,0.00,,,0.17,Wunderground v.1.15,2013-06-11 00:32:00,
2013-06-10 20:33:00,58.4,58.1,29.82,WNW,303,3.0,4.0,99,0.00,,,0.17,Wunderground v.1.15,2013-06-11 00:33:00,
2013-06-10 20:34:00,58.3,58.0,29.82,WNW,303,3.0,4.0,99,0.00,,,0.17,Wunderground v.1.15,2013-06-11 00:34:00,
2013-06-10 20:35:00,58.3,58.0,29.82,WNW,303,2.0,4.0,99,0.00,,,0.17,Wunderground v.1.15,2013-06-11 00:35:00,
2013-06-10 20:37:00,58.2,57.9,29.82,WNW,303,2.0,4.0,99,0.00,,,0.17,Wunderground v.1.15,2013-06-11 00:37:00,
2013-06-10 20:38:00,58.2,57.9,29.81,WNW,303,2.0,4.0,99,0.00,,,0.17,Wunderground v.1.15,2013-06-11 00:38:00,
2013-06-10 20:40:00,58.2,57.9,29.81,WNW,303,2.0,3.0,99,0.00,,,0.17,Wunderground v.1.15,2013-06-11 00:40:00,
2013-06-10 20:41:00,58.2,57.9,29.82,WNW,303,2.0,3.0,99,0.00,,,0.17,Wunderground v.1.15,2013-06-11 00:41:00,
2013-06-10 20:42:00,58.2,57.9,29.81,WNW,303,2.0,3.0,99,0.00,,,0.17,Wunderground v.1.15,2013-06-11 00:42:00,
2013-06-10 20:43:00,58.3,58.0,29.82,WNW,303,2.0,3.0,99,0.00,,,0.17,Wunderground v.1.15,2013-06-11 00:43:00,
2013-06-10 20:45:00,58.3,58.0,29.82,WNW,303,2.0,3.0,99,0.00,,,0.17,Wunderground v.1.15,2013-06-11 00:45:00,
2013-06-10 20:46:00,58.3,58.0,29.82,WNW,303,2.0,3.0,99,0.00,,,0.17,Wunderground v.1.15,2013-06-11 00:46:00,
2013-06-10 20:47:00,58.3,58.0,29.82,WNW,303,2.0,3.0,99,0.00,,,0.17,Wunderground v.1.15,2013-06-11 00:47:00,
2013-06-10 20:48:00,58.2,57.9,29.82,WNW,303,2.0,3.0,99,0.00,,,0.17,Wunderground v.1.15,2013-06-11 00:48:00,
2013-06-10 20:50:00,58.2,57.9,29.82,WNW,303,1.0,2.0,99,0.00,,,0.17,Wunderground v.1.15,2013-06-11 00:50:00,
2013-06-10 20:52:00,58.4,58.1,29.82,WNW,303,1.0,2.0,99,0.00,,,0.17,Wunderground v.1.15,2013-06-11 00:52:00,
2013-06-10 20:53:00,58.4,58.1,29.82,WNW,303,2.0,2.0,99,0.00,,,0.17,Wunderground v.1.15,2013-06-11 00:53:00,
2013-06-10 20:56:00,58.3,58.0,29.82,WNW,303,2.0,3.0,99,0.00,,,0.17,Wunderground v.1.15,2013-06-11 00:56:00,
2013-06-10 20:57:00,58.4,58.4,29.82,WNW,303,1.0,3.0,100,0.00,,,0.17,Wunderground v.1.15,2013-06-11 00:57:00,
2013-06-10 20:58:00,58.3,58.3,29.82,WNW,303,0.0,3.0,100,0.00,,,0.17,Wunderground v.1.15,2013-06-11 00:58:00,
2013-06-10 20:59:00,58.3,58.3,29.82,WNW,303,1.0,3.0,100,0.00,,,0.17,Wunderground v.1.15,2013-06-11 00:59:00,
2013-06-10 21:01:00,58.4,58.4,29.82,WNW,303,1.0,2.0,100,0.00,,,0.17,Wunderground v.1.15,2013-06-11 01:01:00,
2013-06-10 21:02:00,58.4,58.4,29.82,WNW,303,1.0,2.0,100,0.00,,,0.17,Wunderground v.1.15,2013-06-11 01:02:00,
2013-06-10 21:03:00,58.4,58.4,29.82,WNW,303,2.0,2.0,100,0.00,,,0.17,Wunderground v.1.15,2013-06-11 01:03:00,
2013-06-10 21:04:00,58.4,58.4,29.82,WNW,303,1.0,2.0,100,0.00,,,0.17,Wunderground v.1.15,2013-06-11 01:04:00,
2013-06-10 21:07:00,58.4,58.4,29.82,WNW,303,1.0,2.0,100,0.00,,,0.17,Wunderground v.1.15,2013-06-11 01:07:00,
2013-06-10 21:08:00,58.4,58.4,29.82,WNW,303,1.0,2.0,100,0.00,,,0.17,Wunderground v.1.15,2013-06-11 01:08:00,
2013-06-10 21:09:00,58.4,58.4,29.82,WNW,303,4.0,4.0,100,0.00,,,0.17,Wunderground v.1.15,2013-06-11 01:09:00,
2013-06-10 21:12:00,58.2,58.2,29.82,WNW,303,2.0,4.0,100,0.00,,,0.17,Wunderground v.1.15,2013-06-11 01:12:00,
2013-06-10 21:13:00,58.1,58.1,29.82,WNW,303,2.0,4.0,100,0.00,,,0.17,Wunderground v.1.15,2013-06-11 01:13:00,
2013-06-10 21:14:00,58.1,57.8,29.82,WNW,303,1.0,4.0,99,0.00,,,0.17,Wunderground v.1.15,2013-06-11 01:14:00,
2013-06-10 21:15:00,58.1,57.8,29.82,WNW,303,2.0,4.0,99,0.00,,,0.17,Wunderground v.1.15,2013-06-11 01:15:00,
2013-06-10 21:17:00,58.0,57.7,29.82,WNW,303,0.0,4.0,99,0.00,,,0.17,Wunderground v.1.15,2013-06-11 01:17:00,
2013-06-10 21:19:00,58.0,57.7,29.82,WNW,303,1.0,4.0,99,0.00,,,0.17,Wunderground v.1.15,2013-06-11 01:19:00,
2013-06-10 21:20:00,58.0,57.7,29.82,WNW,303,1.0,2.0,99,0.00,,,0.17,Wunderground v.1.15,2013-06-11 01:20:00,
2013-06-10 21:23:00,58.0,57.7,29.82,WNW,303,3.0,3.0,99,0.00,,,0.17,Wunderground v.1.15,2013-06-11 01:23:00,
2013-06-10 21:24:00,58.0,57.7,29.82,WNW,303,3.0,3.0,99,0.00,,,0.17,Wunderground v.1.15,2013-06-11 01:24:00,
2013-06-10 21:25:00,58.0,57.7,29.82,WNW,303,2.0,3.0,99,0.00,,,0.17,Wunderground v.1.15,2013-06-11 01:25:00,
2013-06-10 21:28:00,58.0,57.7,29.82,WNW,303,2.0,3.0,99,0.00,,,0.17,Wunderground v.1.15,2013-06-11 01:28:00,
2013-06-10 21:29:00,58.0,57.7,29.82,WNW,303,2.0,4.0,99,0.00,,,0.17,Wunderground v.1.15,2013-06-11 01:29:00,
2013-06-10 21:30:00,58.0,57.7,29.82,WNW,303,3.0,3.0,99,0.00,,,0.17,Wunderground v.1.15,2013-06-11 01:30:00,
2013-06-10 21:32:00,58.0,57.7,29.82,WNW,303,2.0,3.0,99,0.00,,,0.17,Wunderground v.1.15,2013-06-11 01:32:00,
2013-06-10 21:33:00,58.0,57.7,29.82,WNW,303,1.0,3.0,99,0.00,,,0.17,Wunderground v.1.15,2013-06-11 01:33:00,
2013-06-10 21:34:00,58.0,57.7,29.82,WNW,303,2.0,3.0,99,0.00,,,0.17,Wunderground v.1.15,2013-06-11 01:34:00,
2013-06-10 21:35:00,58.0,57.7,29.82,WNW,303,1.0,3.0,99,0.00,,,0.17,Wunderground v.1.15,2013-06-11 01:35:00,
2013-06-10 21:37:00,58.0,57.7,29.82,WNW,303,0.0,3.0,99,0.00,,,0.17,Wunderground v.1.15,2013-06-11 01:37:00,
2013-06-10 21:38:00,58.0,57.7,29.82,WNW,303,0.0,3.0,99,0.00,,,0.17,Wunderground v.1.15,2013-06-11 01:38:00,
2013-06-10 21:39:00,57.9,57.6,29.82,WNW,303,1.0,3.0,99,0.00,,,0.17,Wunderground v.1.15,2013-06-11 01:39:00,
2013-06-10 21:42:00,57.8,57.5,29.82,WNW,303,2.0,2.0,99,0.00,,,0.17,Wunderground v.1.15,2013-06-11 01:42:00,
2013-06-10 21:43:00,57.8,57.5,29.82,WNW,303,2.0,2.0,99,0.00,,,0.17,Wunderground v.1.15,2013-06-11 01:43:00,
2013-06-10 21:44:00,57.8,57.5,29.82,WNW,303,3.0,3.0,99,0.00,,,0.17,Wunderground v.1.15,2013-06-11 01:44:00,
2013-06-10 21:47:00,57.8,57.8,29.83,WNW,303,1.0,3.0,100,0.00,,,0.17,Wunderground v.1.15,2013-06-11 01:47:00,
2013-06-10 21:49:00,57.8,57.8,29.83,WNW,303,0.0,3.0,100,0.00,,,0.17,Wunderground v.1.15,2013-06-11 01:49:00,
2013-06-10 21:50:00,57.8,57.8,29.83,WNW,303,0.0,1.0,100,0.00,,,0.17,Wunderground v.1.15,2013-06-11 01:50:00,
2013-06-10 21:52:00,58.1,57.8,29.83,WNW,303,0.0,1.0,99,0.00,,,0.17,Wunderground v.1.15,2013-06-11 01:52:00,
2013-06-10 21:54:00,58.0,57.7,29.83,WNW,303,0.0,1.0,99,0.00,,,0.17,Wunderground v.1.15,2013-06-11 01:54:00,
2013-06-10 21:55:00,58.0,57.7,29.83,WNW,303,0.0,1.0,99,0.00,,,0.17,Wunderground v.1.15,2013-06-11 01:55:00,
2013-06-10 21:57:00,58.0,57.7,29.82,WNW,303,0.0,1.0,99,0.00,,,0.17,Wunderground v.1.15,2013-06-11 01:57:00,
2013-06-10 21:59:00,58.0,57.7,29.83,WNW,303,0.0,1.0,99,0.00,,,0.17,Wunderground v.1.15,2013-06-11 01:59:00,
2013-06-10 22:01:00,58.2,58.2,29.83,WNW,303,0.0,0.0,100,0.00,,,0.17,Wunderground v.1.15,2013-06-11 02:01:00,
2013-06-10 22:02:00,58.2,58.2,29.83,WNW,303,0.0,0.0,100,0.00,,,0.17,Wunderground v.1.15,2013-06-11 02:02:00,
2013-06-10 22:03:00,58.2,58.2,29.83,WNW,303,0.0,0.0,100,0.00,,,0.17,Wunderground v.1.15,2013-06-11 02:03:00,
2013-06-10 22:04:00,58.2,58.2,29.83,WNW,303,0.0,0.0,100,0.00,,,0.17,Wunderground v.1.15,2013-06-11 02:04:00,
2013-06-10 22:06:00,58.2,58.2,29.83,WNW,303,0.0,0.0,100,0.00,,,0.17,Wunderground v.1.15,2013-06-11 02:06:00,
2013-06-10 22:08:00,58.2,58.2,29.83,WNW,303,0.0,1.0,100,0.00,,,0.17,Wunderground v.1.15,2013-06-11 02:08:00,
2013-06-10 22:09:00,58.2,58.2,29.83,WNW,303,0.0,1.0,100,0.00,,,0.17,Wunderground v.1.15,2013-06-11 02:09:00,
2013-06-10 22:12:00,58.2,58.2,29.83,WNW,303,0.0,0.0,100,0.00,,,0.17,Wunderground v.1.15,2013-06-11 02:12:00,
2013-06-10 22:13:00,58.2,58.2,29.83,WNW,303,0.0,1.0,100,0.00,,,0.17,Wunderground v.1.15,2013-06-11 02:13:00,
2013-06-10 22:14:00,58.2,58.2,29.83,WNW,303,0.0,1.0,100,0.00,,,0.17,Wunderground v.1.15,2013-06-11 02:14:00,
2013-06-10 22:17:00,58.2,58.2,29.83,WNW,303,0.0,1.0,100,0.00,,,0.17,Wunderground v.1.15,2013-06-11 02:17:00,
2013-06-10 22:18:00,58.2,58.2,29.83,WNW,303,0.0,1.0,100,0.00,,,0.17,Wunderground v.1.15,2013-06-11 02:18:00,
2013-06-10 22:19:00,58.2,58.2,29.83,WNW,301,1.0,1.0,100,0.00,,,0.17,Wunderground v.1.15,2013-06-11 02:19:00,
2013-06-10 22:20:00,58.2,58.2,29.83,WNW,301,0.0,0.0,100,0.00,,,0.17,Wunderground v.1.15,2013-06-11 02:20:00,
2013-06-10 22:22:00,58.2,58.2,29.84,West,266,1.0,2.0,100,0.00,,,0.17,Wunderground v.1.15,2013-06-11 02:22:00,
2013-06-10 22:24:00,58.2,58.2,29.84,West,266,0.0,2.0,100,0.00,,,0.17,Wunderground v.1.15,2013-06-11 02:24:00,
2013-06-10 22:25:00,58.2,58.2,29.84,West,266,0.0,2.0,100,0.00,,,0.17,Wunderground v.1.15,2013-06-11 02:25:00,
2013-06-10 22:28:00,58.2,58.2,29.84,NW,326,3.0,4.0,100,0.00,,,0.17,Wunderground v.1.15,2013-06-11 02:28:00,
2013-06-10 22:29:00,58.1,58.1,29.84,NNW,340,2.0,4.0,100,0.00,,,0.17,Wunderground v.1.15,2013-06-11 02:29:00,
2013-06-10 22:30:00,58.1,58.1,29.84,NNW,335,1.0,4.0,100,0.00,,,0.17,Wunderground v.1.15,2013-06-11 02:30:00,
2013-06-10 22:32:00,58.2,58.2,29.84,NW,305,2.0,4.0,100,0.00,,,0.17,Wunderground v.1.15,2013-06-11 02:32:00,
2013-06-10 22:33:00,58.2,58.2,29.84,NW,305,3.0,4.0,100,0.00,,,0.17,Wunderground v.1.15,2013-06-11 02:33:00,
2013-06-10 22:34:00,58.1,58.1,29.84,NW,305,2.0,4.0,100,0.00,,,0.17,Wunderground v.1.15,2013-06-11 02:34:00,
2013-06-10 22:35:00,58.1,58.1,29.84,NW,306,3.0,5.0,100,0.00,,,0.17,Wunderground v.1.15,2013-06-11 02:35:00,
2013-06-10 22:37:00,58.1,58.1,29.84,WNW,290,3.0,5.0,100,0.00,,,0.17,Wunderground v.1.15,2013-06-11 02:37:00,
2013-06-10 22:39:00,58.0,58.0,29.84,WNW,290,3.0,5.0,100,0.00,,,0.17,Wunderground v.1.15,2013-06-11 02:39:00,
2013-06-10 22:40:00,58.0,58.0,29.85,WNW,290,3.0,5.0,100,0.00,,,0.17,Wunderground v.1.15,2013-06-11 02:40:00,
2013-06-10 22:43:00,58.0,58.0,29.85,WNW,288,4.0,6.0,100,0.00,,,0.17,Wunderground v.1.15,2013-06-11 02:43:00,
2013-06-10 22:44:00,58.0,58.0,29.85,WNW,290,4.0,6.0,100,0.00,,,0.17,Wunderground v.1.15,2013-06-11 02:44:00,
2013-06-10 22:45:00,58.1,58.1,29.85,WNW,290,5.0,6.0,100,0.00,,,0.17,Wunderground v.1.15,2013-06-11 02:45:00,
2013-06-10 22:46:00,58.1,58.1,29.85,WNW,290,3.0,6.0,100,0.00,,,0.17,Wunderground v.1.15,2013-06-11 02:46:00,
2013-06-10 22:48:00,58.0,58.0,29.85,WNW,290,1.0,6.0,100,0.00,,,0.17,Wunderground v.1.15,2013-06-11 02:48:00,
2013-06-10 22:49:00,58.0,58.0,29.85,WNW,290,2.0,6.0,100,0.00,,,0.17,Wunderground v.1.15,2013-06-11 02:49:00,
2013-06-10 22:51:00,58.0,58.0,29.85,WNW,290,3.0,4.0,100,0.00,,,0.17,Wunderground v.1.15,2013-06-11 02:51:00,
2013-06-10 22:53:00,58.1,58.1,29.85,WNW,290,2.0,4.0,100,0.00,,,0.17,Wunderground v.1.15,2013-06-11 02:53:00,
2013-06-10 22:54:00,58.1,58.1,29.85,WNW,290,2.0,4.0,100,0.00,,,0.17,Wunderground v.1.15,2013-06-11 02:54:00,
2013-06-10 22:56:00,58.2,58.2,29.85,WNW,290,2.0,4.0,100,0.00,,,0.17,Wunderground v.1.15,2013-06-11 02:56:00,
2013-06-10 22:58:00,58.2,58.2,29.85,WNW,290,2.0,4.0,100,0.00,,,0.17,Wunderground v.1.15,2013-06-11 02:58:00,
2013-06-10 23:00:00,58.1,58.1,29.85,WNW,290,2.0,3.0,100,0.00,,,0.17,Wunderground v.1.15,2013-06-11 03:00:00,
2013-06-10 23:01:00,58.1,58.1,29.85,WNW,290,3.0,3.0,100,0.00,,,0.17,Wunderground v.1.15,2013-06-11 03:01:00,
2013-06-10 23:02:00,58.1,58.1,29.85,WNW,290,3.0,3.0,100,0.00,,,0.17,Wunderground v.1.15,2013-06-11 03:02:00,
2013-06-10 23:03:00,58.1,58.1,29.85,WNW,290,2.0,3.0,100,0.00,,,0.17,Wunderground v.1.15,2013-06-11 03:03:00,
2013-06-10 23:05:00,58.1,58.1,29.85,WNW,290,3.0,3.0,100,0.00,,,0.17,Wunderground v.1.15,2013-06-11 03:05:00,
2013-06-10 23:07:00,58.1,58.1,29.85,WNW,290,2.0,3.0,100,0.00,,,0.17,Wunderground v.1.15,2013-06-11 03:07:00,
2013-06-10 23:08:00,58.1,58.1,29.85,WNW,290,3.0,4.0,100,0.00,,,0.17,Wunderground v.1.15,2013-06-11 03:08:00,
2013-06-10 23:11:00,58.1,58.1,29.85,WNW,290,3.0,4.0,100,0.00,,,0.17,Wunderground v.1.15,2013-06-11 03:11:00,
2013-06-10 23:12:00,58.1,58.1,29.85,WNW,290,2.0,4.0,100,0.00,,,0.17,Wunderground v.1.15,2013-06-11 03:12:00,
2013-06-10 23:14:00,58.1,58.1,29.85,WNW,290,2.0,4.0,100,0.00,,,0.17,Wunderground v.1.15,2013-06-11 03:14:00,
2013-06-10 23:17:00,58.2,58.2,29.86,WNW,290,1.0,4.0,100,0.00,,,0.17,Wunderground v.1.15,2013-06-11 03:17:00,
2013-06-10 23:18:00,58.2,58.2,29.86,WNW,290,3.0,4.0,100,0.00,,,0.17,Wunderground v.1.15,2013-06-11 03:18:00,
2013-06-10 23:19:00,58.2,58.2,29.85,WNW,290,1.0,4.0,100,0.00,,,0.17,Wunderground v.1.15,2013-06-11 03:19:00,
2013-06-10 23:22:00,58.2,58.2,29.86,WNW,290,3.0,4.0,100,0.00,,,0.17,Wunderground v.1.15,2013-06-11 03:22:00,
2013-06-10 23:23:00,58.2,58.2,29.86,WNW,290,3.0,4.0,100,0.00,,,0.17,Wunderground v.1.15,2013-06-11 03:23:00,
2013-06-10 23:24:00,58.1,58.1,29.86,WNW,290,3.0,4.0,100,0.00,,,0.17,Wunderground v.1.15,2013-06-11 03:24:00,
2013-06-10 23:25:00,58.1,58.1,29.86,WNW,290,2.0,4.0,100,0.00,,,0.17,Wunderground v.1.15,2013-06-11 03:25:00,
2013-06-10 23:27:00,58.1,58.1,29.85,WNW,290,3.0,4.0,100,0.00,,,0.17,Wunderground v.1.15,2013-06-11 03:27:00,
2013-06-10 23:28:00,58.1,58.1,29.85,WNW,290,3.0,4.0,100,0.00,,,0.17,Wunderground v.1.15,2013-06-11 03:28:00,
2013-06-10 23:29:00,58.1,58.1,29.85,WNW,290,3.0,4.0,100,0.00,,,0.17,Wunderground v.1.15,2013-06-11 03:29:00,
2013-06-10 23:30:00,58.0,58.0,29.85,WNW,290,3.0,3.0,100,0.00,,,0.17,Wunderground v.1.15,2013-06-11 03:30:00,
2013-06-10 23:33:00,58.1,58.1,29.85,WNW,290,2.0,4.0,100,0.00,,,0.17,Wunderground v.1.15,2013-06-11 03:33:00,
2013-06-10 23:34:00,58.1,58.1,29.85,WNW,290,3.0,4.0,100,0.00,,,0.17,Wunderground v.1.15,2013-06-11 03:34:00,
2013-06-10 23:35:00,58.0,58.0,29.85,WNW,290,3.0,4.0,100,0.00,,,0.17,Wunderground v.1.15,2013-06-11 03:35:00,
2013-06-10 23:38:00,58.0,58.0,29.85,WNW,286,3.0,5.0,100,0.00,,,0.17,Wunderground v.1.15,2013-06-11 03:38:00,
2013-06-10 23:39:00,58.0,58.0,29.85,WNW,286,2.0,5.0,100,0.00,,,0.17,Wunderground v.1.15,2013-06-11 03:39:00,
2013-06-10 23:40:00,58.0,58.0,29.85,WNW,286,2.0,3.0,100,0.00,,,0.17,Wunderground v.1.15,2013-06-11 03:40:00,
2013-06-10 23:41:00,58.0,58.0,29.85,WNW,286,2.0,3.0,100,0.00,,,0.17,Wunderground v.1.15,2013-06-11 03:41:00,
2013-06-10 23:43:00,57.9,57.9,29.86,WNW,286,3.0,3.0,100,0.00,,,0.17,Wunderground v.1.15,2013-06-11 03:43:00,
2013-06-10 23:44:00,57.9,57.9,29.85,WNW,285,3.0,3.0,100,0.00,,,0.17,Wunderground v.1.15,2013-06-11 03:44:00,
2013-06-10 23:45:00,57.9,57.9,29.85,WNW,290,3.0,3.0,100,0.00,,,0.17,Wunderground v.1.15,2013-06-11 03:45:00,
2013-06-10 23:46:00,57.8,57.8,29.85,WNW,290,3.0,4.0,100,0.00,,,0.17,Wunderground v.1.15,2013-06-11 03:46:00,
2013-06-10 23:48:00,57.9,57.9,29.86,WNW,292,3.0,4.0,100,0.00,,,0.17,Wunderground v.1.15,2013-06-11 03:48:00,
2013-06-10 23:49:00,57.9,57.9,29.86,WNW,303,4.0,5.0,100,0.00,,,0.17,Wunderground v.1.15,2013-06-11 03:49:00,
2013-06-10 23:50:00,57.9,57.9,29.86,WNW,302,3.0,4.0,100,0.00,,,0.17,Wunderground v.1.15,2013-06-11 03:50:00,
2013-06-10 23:51:00,57.9,57.9,29.86,WNW,301,4.0,5.0,100,0.00,,,0.17,Wunderground v.1.15,2013-06-11 03:51:00,
2013-06-10 23:53:00,57.8,57.8,29.86,WNW,292,2.0,5.0,100,0.00,,,0.17,Wunderground v.1.15,2013-06-11 03:53:00,
2013-06-10 23:55:00,57.8,57.8,29.86,WNW,293,2.0,5.0,100,0.00,,,0.17,Wunderground v.1.15,2013-06-11 03:55:00,
2013-06-10 23:56:00,57.8,57.8,29.86,WNW,294,1.0,5.0,100,0.00,,,0.17,Wunderground v.1.15,2013-06-11 03:56:00,
2013-06-10 23:58:00,57.8,57.8,29.86,WNW,294,1.0,5.0,100,0.00,,,0.17,Wunderground v.1.15,2013-06-11 03:58:00,
2013-06-10 23:59:00,57.8,57.8,29.86,WNW,294,2.0,5.0,100,0.00,,,0.17,Wunderground v.1.15,2013-06-11 03:59:00,